<- Previous Day | Today | Next Day ->

All Data for 28 February 2020

 

Time A - D Temp A - D Dew Point A - D Humidity A - D Pressure A - D Wind A - D Wind Dir Gust A - D Rain Rate A - D Rain Total
00:00 5.2 0.2 70 1013.6 6.9 SE 9.8 0.0 0.0
00:02 5.2 0.2 70 1013.6 8.3 SE 8.3 0.0 0.0
00:03 5.2 0.2 70 1013.7 7.6 SE 8.3 0.0 0.0
00:04 5.2 0.2 70 1013.6 6.9 SE 8.3 0.0 0.0
00:05 5.2 0.2 70 1013.6 8.3 SE 8.3 0.0 0.0
00:06 5.3 0.3 70 1013.4 9.2 SE 9.2 0.0 0.0
00:07 5.3 0.3 70 1013.5 8.3 SE 9.2 0.0 0.0
00:08 5.3 0.3 70 1013.4 8.3 SE 9.2 0.0 0.0
00:09 5.3 0.3 70 1013.4 8.3 SE 9.2 0.0 0.0
00:10 5.3 0.3 70 1013.5 6.9 SE 9.2 0.0 0.0
00:11 5.3 0.3 70 1013.4 7.6 E 9.2 0.0 0.0
00:12 5.3 0.3 70 1013.4 6.0 SE 9.2 0.0 0.0
00:13 5.3 0.3 70 1013.5 7.6 SE 9.2 0.0 0.0
00:14 5.3 0.3 70 1013.5 8.3 SE 9.2 0.0 0.0
00:16 5.3 0.3 70 1013.3 6.9 SE 9.2 0.0 0.0
00:17 5.3 0.3 70 1013.4 8.3 SE 9.2 0.0 0.0
00:18 5.3 0.3 70 1013.3 7.6 S 9.2 0.0 0.0
00:19 5.3 0.3 70 1013.4 8.3 SE 9.2 0.0 0.0
00:20 5.3 0.3 70 1013.2 9.2 SE 9.2 0.0 0.0
00:21 5.3 0.3 70 1013.2 9.2 SE 9.8 0.0 0.0
00:22 5.4 0.4 70 1013.3 9.2 SE 9.8 0.0 0.0
00:23 5.4 0.4 70 1013.2 7.6 SE 9.8 0.0 0.0
00:24 5.4 0.4 70 1013.2 6.9 SE 9.8 0.0 0.0
00:25 5.4 0.4 70 1013.2 7.6 SW 9.8 0.0 0.0
00:26 5.4 0.4 70 1013.4 6.9 SE 9.8 0.0 0.0
00:27 5.4 0.4 70 1013.3 8.3 SE 9.8 0.0 0.0
00:28 5.4 0.4 70 1013.2 8.3 SE 9.8 0.0 0.0
00:29 5.4 0.4 70 1013.2 7.6 SE 9.8 0.0 0.0
00:31 5.4 0.4 70 1013.3 6.9 SE 9.2 0.0 0.0
00:32 5.4 0.4 70 1013.3 7.6 SE 9.2 0.0 0.0
00:33 5.4 0.6 71 1013.1 8.3 SE 8.3 0.0 0.0
00:34 5.4 0.4 70 1013.1 5.4 E 8.3 0.0 0.0
00:35 5.4 0.4 70 1013.2 7.6 SE 8.3 0.0 0.0
00:36 5.5 0.5 70 1013.2 8.3 SE 8.3 0.0 0.0
00:37 5.5 0.7 71 1013.1 7.6 S 8.3 0.0 0.0
00:38 5.5 0.7 71 1013.1 8.3 SE 8.3 0.0 0.0
00:39 5.5 0.7 71 1013.0 9.2 SE 9.2 0.0 0.0
00:40 5.5 0.7 71 1013.0 7.6 SE 9.2 0.0 0.0
00:41 5.5 0.7 71 1012.9 10.7 SE 10.7 0.0 0.0
00:42 5.5 0.7 71 1012.9 9.2 SE 10.7 0.0 0.0
00:43 5.6 0.8 71 1013.0 10.7 E 10.7 0.0 0.0
00:44 5.6 0.8 71 1013.0 10.7 SE 10.7 0.0 0.0
00:45 5.6 0.8 71 1012.9 10.7 S 10.7 0.0 0.0
00:46 5.6 0.8 71 1012.9 9.2 ESE 10.7 0.0 0.0
00:47 5.6 0.8 71 1013.0 6.9 SE 10.7 0.0 0.0
00:48 5.6 0.8 71 1012.9 8.3 SE 10.7 0.0 0.0
00:49 5.7 0.9 71 1013.0 8.3 S 10.7 0.0 0.0
00:50 5.7 0.9 71 1012.9 9.2 SE 10.7 0.0 0.0
00:51 5.7 0.9 71 1012.9 9.2 SE 10.7 0.0 0.0
00:52 5.7 0.9 71 1012.9 9.2 SE 10.7 0.0 0.0
00:53 5.7 0.9 71 1012.8 7.6 SE 10.7 0.0 0.0
00:54 5.7 0.9 71 1012.9 9.2 SE 10.7 0.0 0.0
00:55 5.7 0.9 71 1012.9 11.4 SE 11.4 0.0 0.0
00:56 5.7 0.9 71 1012.9 7.6 SE 11.4 0.0 0.0
00:57 5.8 1.0 71 1012.9 9.8 SE 11.4 0.0 0.0
00:59 5.8 1.0 71 1012.8 7.6 SE 11.4 0.0 0.0
01:00 5.8 1.0 71 1012.9 9.8 SE 11.4 0.0 0.0
01:01 5.8 1.0 71 1012.8 9.8 S 11.4 0.0 0.0
01:02 5.8 1.0 71 1012.8 9.8 S 11.4 0.0 0.0
01:03 5.8 1.0 71 1012.9 9.8 SE 11.4 0.0 0.0
01:04 5.8 1.0 71 1012.9 9.2 SE 11.4 0.0 0.0
01:05 5.8 1.0 71 1012.9 8.3 S 11.4 0.0 0.0
01:06 5.8 1.0 71 1012.9 7.6 SE 10.7 0.0 0.0
01:07 5.9 1.0 71 1012.7 9.8 SE 10.7 0.0 0.0
01:08 5.9 1.0 71 1012.8 9.8 E 9.8 0.0 0.0
01:09 5.9 1.0 71 1012.7 9.2 SE 9.8 0.0 0.0
01:10 5.9 1.0 71 1012.6 8.3 SE 9.8 0.0 0.0
01:11 5.9 1.0 71 1012.8 9.2 SE 9.8 0.0 0.0
01:13 5.9 1.0 71 1012.7 10.7 S 12.1 0.0 0.0
01:14 6.0 1.1 71 1012.9 10.7 SE 12.1 0.0 0.0
01:15 6.0 1.1 71 1012.9 7.6 S 12.1 0.0 0.0
01:16 6.0 1.1 71 1012.8 9.8 S 12.1 0.0 0.0
01:17 6.0 1.1 71 1012.7 9.8 E 12.1 0.0 0.0
01:18 6.0 1.1 71 1012.7 8.3 SE 12.1 0.0 0.0
01:19 6.0 1.1 71 1012.8 12.1 SE 12.1 0.0 0.0
01:20 6.0 1.1 71 1012.6 9.8 E 12.1 0.0 0.0
01:21 6.0 1.1 71 1012.5 12.1 SE 12.1 0.0 0.0
01:22 6.0 1.1 71 1012.7 9.8 SE 12.1 0.0 0.0
01:23 6.0 1.1 71 1012.6 9.8 SE 12.1 0.0 0.0
01:24 6.0 1.1 71 1012.6 14.5 E 14.5 0.0 0.0
01:25 6.1 1.2 71 1012.6 9.2 SE 14.5 0.0 0.0
01:27 6.1 1.2 71 1012.4 11.4 SE 14.5 0.0 0.0
01:28 6.1 1.2 71 1012.4 9.2 S 14.5 0.0 0.0
01:29 6.1 1.2 71 1012.4 12.1 SE 14.5 0.0 0.0
01:30 6.1 1.2 71 1012.4 12.1 SE 14.5 0.0 0.0
01:31 6.1 1.2 71 1012.2 9.8 SE 14.5 0.0 0.0
01:32 6.1 1.2 71 1012.4 9.8 SE 14.5 0.0 0.0
01:33 6.2 1.3 71 1012.5 13.6 SE 14.5 0.0 0.0
01:34 6.2 1.3 71 1012.5 9.8 S 14.5 0.0 0.0
01:35 6.2 1.3 71 1012.4 9.8 SE 13.6 0.0 0.0
01:36 6.2 1.3 71 1012.4 13.6 S 13.6 0.0 0.0
01:37 6.2 1.3 71 1012.4 13.6 SE 13.6 0.0 0.0
01:38 6.2 1.3 71 1012.4 9.2 SE 13.6 0.0 0.0
01:39 6.2 1.3 71 1012.3 14.5 SE 14.5 0.0 0.0
01:41 6.3 1.4 71 1012.4 9.8 SE 14.5 0.0 0.0
01:42 6.3 1.4 71 1012.3 12.1 S 14.5 0.0 0.0
01:43 6.3 1.4 71 1012.2 13.6 SE 14.5 0.0 0.0
01:44 6.3 1.4 71 1012.1 10.7 SE 14.5 0.0 0.0
01:45 6.3 1.4 71 1012.0 10.7 S 15.9 0.0 0.0
01:46 6.3 1.4 71 1012.0 13.0 S 15.9 0.0 0.0
01:47 6.3 1.4 71 1012.1 13.0 E 15.9 0.0 0.0
01:48 6.4 1.5 71 1012.0 13.6 E 15.9 0.0 0.0
01:49 6.4 1.5 71 1011.9 9.8 SE 15.9 0.0 0.0
01:50 6.4 1.5 71 1012.0 12.1 S 15.9 0.0 0.0
01:51 6.4 1.5 71 1011.9 11.4 SE 15.9 0.0 0.0
01:52 6.4 1.5 71 1011.9 13.6 E 15.9 0.0 0.0
01:53 6.4 1.5 71 1011.9 12.1 SE 15.9 0.0 0.0
01:55 6.4 1.5 71 1011.9 13.6 S 13.6 0.0 0.0
01:56 6.4 1.5 71 1011.7 12.1 SE 13.6 0.0 0.0
01:57 6.5 1.6 71 1011.6 11.4 SE 13.6 0.0 0.0
01:58 6.5 1.6 71 1011.9 12.1 SE 13.6 0.0 0.0
01:59 6.5 1.6 71 1011.8 14.5 SE 14.5 0.0 0.0
02:00 6.5 1.6 71 1011.6 18.3 E 18.3 0.0 0.0
02:01 6.5 1.6 71 1011.6 13.6 S 18.3 0.0 0.0
02:02 6.5 1.6 71 1011.7 13.6 S 18.3 0.0 0.0
02:03 6.5 1.6 71 1011.7 9.8 S 18.3 0.0 0.0
02:04 6.5 1.6 71 1011.6 13.0 SE 18.3 0.0 0.0
02:05 6.5 1.6 71 1011.6 11.4 SE 18.3 0.0 0.0
02:06 6.5 1.6 71 1011.7 12.1 SE 18.3 0.0 0.0
02:07 6.6 1.7 71 1011.5 13.6 SE 18.3 0.0 0.0
02:09 6.6 1.7 71 1011.6 9.2 S 18.3 0.0 0.0
02:10 6.6 1.7 71 1011.4 11.4 SE 14.5 0.0 0.0
02:11 6.6 1.7 71 1011.6 10.7 SE 14.5 0.0 0.0
02:12 6.6 1.7 71 1011.4 9.2 S 14.5 0.0 0.0
02:13 6.6 1.7 71 1011.5 13.6 E 14.5 0.0 0.0
02:14 6.6 1.7 71 1011.4 12.1 SE 14.5 0.0 0.0
02:15 6.6 1.7 71 1011.3 10.7 SE 14.5 0.0 0.0
02:16 6.6 1.7 71 1011.5 9.8 S 14.5 0.0 0.0
02:17 6.6 1.7 71 1011.4 11.4 S 14.5 0.0 0.0
02:18 6.6 1.7 71 1011.4 13.0 SE 14.5 0.8 0.1
02:19 6.6 1.7 71 1011.3 15.9 SE 15.9 0.8 0.1
02:20 6.6 1.7 71 1011.3 15.2 SE 15.9 0.8 0.1
02:21 6.6 1.7 71 1011.4 10.7 S 15.9 0.8 0.1
02:23 6.6 1.9 72 1011.1 10.7 SE 15.9 0.0 0.1
02:24 6.6 1.9 72 1011.2 11.4 E 15.9 0.8 0.1
02:25 6.6 1.9 72 1011.1 14.5 SE 15.9 0.8 0.1
02:26 6.6 1.9 72 1011.1 13.0 SE 15.9 0.8 0.1
02:27 6.6 1.9 72 1011.1 15.9 S 15.9 0.8 0.2
02:28 6.6 1.9 72 1011.2 13.6 SE 15.9 1.5 0.2
02:29 6.6 1.9 72 1011.2 16.8 S 16.8 0.8 0.2
02:30 6.5 1.8 72 1011.0 13.6 SE 16.8 0.8 0.2
02:31 6.5 1.8 72 1011.0 12.1 SE 16.8 0.8 0.2
02:32 6.5 1.8 72 1011.0 14.5 SE 16.8 0.8 0.2
02:33 6.5 1.8 72 1011.0 14.5 SE 16.8 0.0 0.2
02:34 6.4 1.7 72 1011.0 13.6 SE 16.8 0.0 0.2
02:35 6.4 1.7 72 1010.9 13.6 SE 16.8 0.8 0.3
02:37 6.4 1.7 72 1010.7 13.0 SE 16.8 1.5 0.4
02:38 6.4 1.7 72 1010.8 13.0 S 16.8 2.3 0.4
02:39 6.4 1.7 72 1010.8 10.7 SE 15.9 2.3 0.4
02:40 6.3 1.6 72 1011.0 12.1 SE 15.9 1.5 0.4
02:41 6.4 1.7 72 1010.9 14.5 S 15.9 1.5 0.4
02:42 6.3 1.6 72 1010.9 11.4 S 15.9 1.5 0.4
02:43 6.3 1.6 72 1011.1 11.4 S 15.9 0.8 0.5
02:44 6.3 1.6 72 1011.1 10.7 S 15.9 1.5 0.5
02:45 6.3 1.6 72 1010.9 12.1 SE 14.5 1.5 0.5
02:46 6.3 1.6 72 1010.9 15.2 SE 15.2 1.5 0.6
02:47 6.3 1.8 73 1010.8 13.0 S 15.2 1.5 0.6
02:48 6.3 1.8 73 1010.8 12.1 SE 15.2 2.3 0.6
02:49 6.3 1.8 73 1010.8 12.1 S 15.2 1.5 0.6
02:51 6.3 1.8 73 1010.8 10.7 SE 15.2 1.5 0.7
02:52 6.3 1.8 73 1010.7 16.8 S 16.8 1.5 0.7
02:53 6.3 1.8 73 1010.5 15.9 SE 16.8 1.5 0.8
02:54 6.3 1.8 73 1010.4 15.9 S 16.8 1.5 0.8
02:55 6.3 2.0 74 1010.4 13.6 S 16.8 0.8 0.8
02:56 6.3 2.0 74 1010.4 13.0 SE 16.8 1.5 0.8
02:57 6.2 1.9 74 1010.4 15.9 SE 16.8 2.3 0.9
02:58 6.3 2.0 74 1010.4 15.9 SE 16.8 1.5 0.9
02:59 6.3 2.0 74 1010.3 19.7 SE 19.7 2.3 0.9
03:00 6.3 2.0 74 1010.3 8.3 S 19.7 3.0 1.0
03:01 6.2 1.9 74 1010.2 10.7 SE 19.7 2.3 1.0
03:02 6.2 1.9 74 1010.2 10.7 SE 19.7 1.5 1.0
03:03 6.2 2.1 75 1010.1 13.0 S 19.7 1.5 1.1
03:05 6.2 2.1 75 1010.2 15.9 S 19.7 2.3 1.2
03:06 6.3 2.2 75 1010.3 14.5 S 19.7 2.3 1.2
03:07 6.2 2.1 75 1010.1 11.4 S 19.7 2.3 1.3
03:08 6.2 2.1 75 1010.0 10.7 E 19.7 3.0 1.3
03:09 6.3 2.2 75 1010.1 14.5 SE 19.7 2.3 1.3
03:10 6.3 2.2 75 1010.2 15.9 SE 15.9 1.5 1.4
03:11 6.3 2.2 75 1010.2 15.9 SE 15.9 2.3 1.4
03:12 6.3 2.2 75 1010.0 11.4 S 15.9 3.0 1.4
03:13 6.3 2.4 76 1010.0 12.1 SE 15.9 2.3 1.4
03:14 6.3 2.4 76 1010.0 15.2 S 15.9 2.3 1.5
03:15 6.3 2.4 76 1010.1 10.7 E 15.9 2.3 1.6
03:16 6.3 2.4 76 1009.9 15.2 S 15.9 3.0 1.6
03:17 6.3 2.4 76 1009.8 15.9 SE 15.9 3.0 1.7
03:19 6.3 2.4 76 1009.7 16.8 SE 16.8 3.0 1.8
03:20 6.3 2.4 76 1009.8 13.0 SE 16.8 3.8 1.8
03:21 6.4 2.7 77 1009.6 15.9 S 17.4 2.3 1.8
03:22 6.4 2.7 77 1009.7 12.1 S 17.4 1.5 1.9
03:23 6.4 2.7 77 1009.6 14.5 S 17.4 2.3 1.9
03:24 6.4 2.7 77 1009.5 18.3 SE 18.3 1.5 1.9
03:25 6.4 2.7 77 1009.4 18.3 SE 18.3 0.8 1.9
03:26 6.4 2.7 77 1009.6 13.6 SE 18.3 0.8 1.9
03:27 6.4 2.7 77 1009.4 14.5 SE 18.3 0.8 2.0
03:28 6.4 2.7 77 1009.3 15.2 SE 18.3 0.8 2.0
03:29 6.4 2.7 77 1009.3 11.4 SE 18.3 0.8 2.0
03:30 6.4 2.7 77 1009.4 14.5 SE 18.3 0.8 2.0
03:31 6.4 2.7 77 1009.3 15.2 E 18.3 0.8 2.0
03:33 6.5 2.9 78 1009.3 19.0 SE 19.0 0.8 2.0
03:34 6.5 2.9 78 1009.5 12.1 E 19.0 0.8 2.0
03:35 6.5 2.9 78 1009.4 13.0 SE 19.0 0.8 2.0
03:36 6.5 2.9 78 1009.2 14.5 E 19.0 0.8 2.0
03:37 6.5 2.9 78 1009.2 14.5 SE 19.0 0.0 2.0
03:38 6.6 3.0 78 1009.3 13.0 S 19.0 0.0 2.0
03:39 6.6 3.0 78 1009.2 12.1 SE 19.0 0.0 2.0
03:40 6.6 3.0 78 1009.2 12.1 SE 19.0 0.0 2.0
03:41 6.6 3.2 79 1009.1 12.1 SE 19.0 0.0 2.0
03:42 6.6 3.2 79 1009.0 15.2 SE 19.0 0.0 2.0
03:43 6.6 3.2 79 1008.9 14.5 SE 19.0 0.0 2.1
03:44 6.6 3.2 79 1008.9 24.4 SE 24.4 0.8 2.1
03:45 6.6 3.2 79 1009.0 18.3 SE 24.4 0.8 2.1
03:47 6.6 3.2 79 1008.9 12.1 SE 24.4 0.8 2.1
03:48 6.6 3.2 79 1008.8 13.0 S 24.4 0.8 2.1
03:49 6.7 3.3 79 1008.9 19.7 SE 24.4 0.0 2.1
03:50 6.7 3.3 79 1008.7 17.4 SE 24.4 0.0 2.1
03:51 6.7 3.5 80 1008.8 19.0 SE 24.4 0.0 2.1
03:52 6.7 3.5 80 1008.7 11.4 SE 24.4 0.0 2.1
03:53 6.7 3.5 80 1008.8 13.6 SE 24.4 0.0 2.1
03:54 6.7 3.5 80 1008.8 13.0 SE 24.4 0.0 2.1
03:55 6.8 3.6 80 1008.8 13.0 E 19.7 0.8 2.1
03:56 6.8 3.6 80 1008.8 13.6 SE 19.7 0.8 2.1
03:57 6.8 3.6 80 1008.6 16.8 SE 19.7 1.5 2.2
03:58 6.9 3.7 80 1008.6 14.5 SE 19.7 1.5 2.2
03:59 6.9 3.7 80 1008.6 19.7 SE 19.7 2.3 2.3
04:01 6.9 3.9 81 1008.5 19.7 S 19.7 3.8 2.5
04:02 6.9 3.9 81 1008.6 19.7 S 19.7 3.0 2.5
04:03 7.0 4.0 81 1008.5 22.8 SE 22.8 3.0 2.6
04:04 7.0 4.0 81 1008.4 19.0 SE 22.8 3.8 2.6
04:05 7.0 4.0 81 1008.6 14.5 SE 22.8 2.3 2.6
04:06 7.0 4.0 81 1008.4 13.6 SE 22.8 2.3 2.6
04:07 7.0 4.0 81 1008.5 22.1 SE 22.8 2.3 2.7
04:08 7.0 4.0 81 1008.5 20.6 SE 22.8 3.0 2.7
04:09 7.1 4.1 81 1008.5 23.5 SE 23.5 1.5 2.7
04:10 7.1 4.1 81 1008.4 19.0 SE 23.5 2.3 2.8
04:11 7.1 4.2 82 1008.5 21.3 SE 23.5 1.5 2.8
04:12 7.1 4.2 82 1008.3 13.6 S 23.5 2.3 2.8
04:13 7.1 4.2 82 1008.4 14.5 S 23.5 2.3 2.9
04:14 7.1 4.2 82 1008.4 16.8 S 23.5 2.3 3.0
04:15 7.1 4.2 82 1008.3 16.8 SE 23.5 2.3 3.0
04:16 7.1 4.2 82 1008.3 14.5 S 23.5 2.3 3.0
04:17 7.2 4.3 82 1008.2 20.6 SE 23.5 2.3 3.1
04:18 7.2 4.3 82 1008.2 21.3 SE 23.5 2.3 3.1
04:19 7.2 4.3 82 1008.2 18.3 E 23.5 3.0 3.2
04:20 7.2 4.3 82 1008.0 15.2 S 23.5 3.0 3.2
04:21 7.2 4.3 82 1008.1 17.4 SE 23.5 3.0 3.2
04:22 7.2 4.3 82 1008.1 15.2 S 23.5 2.3 3.2
04:23 7.2 4.5 83 1008.1 19.7 SE 23.5 2.3 3.3
04:24 7.2 4.5 83 1008.1 13.6 SE 23.5 2.3 3.3
04:25 7.2 4.5 83 1008.1 21.3 SE 23.5 1.5 3.3
04:26 7.2 4.5 83 1008.1 17.4 SE 23.5 1.5 3.3
04:27 7.3 4.6 83 1008.0 18.3 SE 23.5 2.3 3.4
04:29 7.3 4.6 83 1008.0 14.5 S 21.3 1.5 3.5
04:30 7.3 4.6 83 1007.9 15.2 SE 21.3 2.3 3.6
04:31 7.1 4.4 83 1007.9 17.4 S 21.3 3.0 3.6
04:32 7.3 4.6 83 1007.9 17.4 SE 21.3 3.0 3.7
04:33 7.3 4.6 83 1007.9 17.4 SE 21.3 2.3 3.7
04:34 7.3 4.6 83 1007.8 15.9 SE 21.3 2.3 3.7
04:35 7.3 4.8 84 1007.9 19.0 SE 21.3 2.3 3.7
04:36 7.3 4.8 84 1007.8 18.3 E 19.0 2.3 3.8
04:37 7.3 4.8 84 1007.8 25.1 SE 25.1 2.3 3.8
04:38 7.4 4.9 84 1007.8 22.8 SE 25.1 2.3 3.8
04:39 7.4 4.9 84 1007.8 19.0 S 25.1 2.3 3.9
04:40 7.4 4.9 84 1007.8 20.6 S 25.1 2.3 3.9
04:41 7.4 4.9 84 1007.7 13.6 S 25.1 1.5 3.9
04:43 7.4 4.9 84 1007.8 17.4 S 25.1 1.5 4.0
04:44 7.4 4.9 84 1007.7 16.8 SE 25.1 2.3 4.0
04:45 7.5 5.0 84 1007.6 12.1 S 25.1 1.5 4.1
04:46 7.5 5.0 84 1007.7 16.8 SE 25.1 2.3 4.1
04:47 7.4 4.9 84 1007.7 18.3 SE 22.8 1.5 4.2
04:48 7.5 5.0 84 1007.6 15.9 S 21.3 3.0 4.2
04:49 7.5 5.0 84 1007.6 19.0 SE 20.6 2.3 4.2
04:50 7.5 5.0 84 1007.6 18.3 SE 20.6 3.0 4.3
04:51 7.5 5.0 84 1007.5 19.0 SE 19.0 3.0 4.3
04:52 7.5 5.1 85 1007.6 15.9 E 21.3 4.5 4.5
04:53 7.5 5.1 85 1007.6 19.7 SE 21.3 3.0 4.5
04:54 7.6 5.2 85 1007.6 15.2 SE 21.3 3.8 4.5
04:55 7.6 5.2 85 1007.5 19.0 SE 21.3 3.8 4.6
04:57 7.6 5.2 85 1007.5 13.6 E 21.3 2.3 4.7
04:58 7.6 5.2 85 1007.5 15.2 S 21.3 2.3 4.7
04:59 7.6 5.2 85 1007.4 15.2 S 21.3 2.3 4.8
05:00 7.6 5.2 85 1007.4 13.6 SE 21.3 2.3 4.8
05:01 7.6 5.2 85 1007.5 15.9 E 21.3 3.0 4.9
05:02 7.6 5.2 85 1007.5 15.9 E 19.7 2.3 4.9
05:03 7.7 5.3 85 1007.5 15.2 SE 19.7 2.3 5.0
05:04 7.7 5.3 85 1007.5 13.0 E 19.0 3.8 5.0
05:05 7.7 5.3 85 1007.4 15.2 SE 19.0 3.8 5.1
05:06 7.7 5.3 85 1007.3 15.2 SE 17.4 3.8 5.2
05:07 7.7 5.3 85 1007.5 13.0 SE 17.4 3.8 5.2
05:08 7.7 5.3 85 1007.4 13.0 S 16.8 5.3 5.3
05:09 7.7 5.5 86 1007.4 13.6 SE 16.8 3.8 5.4
05:11 7.8 5.6 86 1007.3 15.2 SE 19.0 4.5 5.6
05:12 7.8 5.6 86 1007.3 16.8 E 19.0 5.3 5.6
05:13 7.8 5.6 86 1007.2 15.2 S 19.0 4.5 5.7
05:14 7.8 5.6 86 1007.3 15.9 S 19.0 3.8 5.7
05:15 7.8 5.6 86 1007.2 19.0 SE 19.0 4.5 5.8
05:16 7.8 5.6 86 1007.2 15.2 S 19.0 3.0 5.8
05:17 7.8 5.6 86 1007.1 13.0 SE 19.0 3.0 5.9
05:18 7.8 5.6 86 1007.1 15.2 S 19.0 2.3 5.9
05:19 7.9 5.7 86 1007.3 14.5 SE 19.0 3.0 5.9
05:20 7.9 5.7 86 1007.2 15.9 SE 19.0 3.0 6.0
05:21 7.9 5.7 86 1007.2 14.5 SE 19.0 3.0 6.0
05:22 7.9 5.7 86 1007.1 13.6 SE 19.0 2.3 6.0
05:23 7.9 5.7 86 1007.2 9.8 SE 19.0 3.0 6.1
05:24 7.9 5.7 86 1007.1 14.5 SE 19.0 3.0 6.2
05:25 7.9 5.7 86 1006.9 11.4 S 19.0 2.3 6.2
05:26 7.9 5.7 86 1007.0 13.0 SE 17.4 2.3 6.2
05:27 8.0 5.8 86 1007.0 19.0 SE 19.0 2.3 6.3
05:28 8.0 5.8 86 1007.0 13.0 SE 19.0 2.3 6.3
05:29 8.0 5.8 86 1006.9 17.4 S 19.0 2.3 6.4
05:30 8.0 6.0 87 1006.9 13.0 SE 19.0 3.0 6.5
05:31 8.0 6.0 87 1006.9 13.0 SE 19.0 3.0 6.5
05:32 8.0 6.0 87 1006.9 16.8 S 19.0 3.8 6.6
05:33 8.1 6.1 87 1006.9 16.8 SE 19.0 3.8 6.6
05:34 8.1 6.1 87 1006.7 15.9 SE 19.0 3.0 6.6
05:35 8.1 6.1 87 1006.6 13.6 SE 19.0 3.0 6.7
05:36 8.1 6.1 87 1006.8 19.7 SE 19.7 3.8 6.8
05:37 8.1 6.1 87 1006.7 15.2 S 19.7 3.0 6.8
05:39 8.2 6.2 87 1006.4 19.0 SE 19.7 3.0 6.9
05:40 8.2 6.2 87 1006.5 16.8 E 19.7 3.0 6.9
05:41 8.2 6.2 87 1006.3 13.6 S 19.7 2.3 7.0
05:42 8.2 6.2 87 1006.6 15.9 SE 19.7 2.3 7.0
05:43 8.2 6.2 87 1006.5 14.5 SE 19.7 1.5 7.1
05:44 8.2 6.2 87 1006.4 11.4 SE 19.7 2.3 7.1
05:45 8.2 6.2 87 1006.4 9.8 S 19.7 2.3 7.1
05:46 8.3 6.3 87 1006.4 14.5 SE 19.7 2.3 7.2
05:47 8.3 6.3 87 1006.4 10.7 SE 19.0 2.3 7.2
05:48 8.3 6.3 87 1006.1 12.1 SE 19.0 3.0 7.2
05:49 8.3 6.3 87 1006.3 13.6 SE 19.0 2.3 7.2
05:50 8.3 6.3 87 1006.3 10.7 SE 16.8 2.3 7.3
05:51 8.3 6.3 87 1006.2 14.5 E 16.8 1.5 7.3
05:53 8.4 6.5 88 1006.3 16.8 S 18.3 1.5 7.4
05:54 8.5 6.6 88 1006.2 16.8 SE 18.3 1.5 7.4
05:55 8.5 6.6 88 1006.2 11.4 SE 18.3 1.5 7.4
05:56 8.5 6.6 88 1006.2 15.2 S 18.3 2.3 7.5
05:57 8.6 6.7 88 1006.2 21.3 SE 21.3 1.5 7.6
05:58 8.6 6.7 88 1006.0 14.5 E 21.3 2.3 7.6
05:59 8.6 6.7 88 1005.9 14.5 S 21.3 2.3 7.6
06:00 8.6 6.7 88 1005.9 11.4 SE 21.3 2.3 7.6
06:01 8.7 6.8 88 1006.2 14.5 SE 21.3 1.5 7.6
06:02 8.7 6.8 88 1005.8 14.5 SE 21.3 1.5 7.6
06:03 8.7 6.8 88 1005.8 14.5 SE 21.3 0.8 7.6
06:04 8.7 6.8 88 1005.8 14.5 SE 21.3 0.8 7.6
06:05 8.7 6.8 88 1005.8 14.5 SE 21.3 0.0 7.6
06:07 8.8 6.9 88 1005.7 12.1 SE 21.3 0.0 7.8
06:08 8.9 7.0 88 1005.6 13.6 S 14.5 2.3 7.8
06:09 9.0 7.1 88 1005.6 13.6 S 14.5 2.3 7.8
06:10 9.0 7.1 88 1005.6 13.0 S 14.5 2.3 7.8
06:11 9.0 7.1 88 1005.7 19.7 SE 19.7 2.3 7.9
06:12 9.0 7.1 88 1005.5 16.8 ENE 19.7 3.0 7.9
06:13 9.0 7.1 88 1005.7 17.4 S 19.7 0.8 7.9
06:14 9.1 7.2 88 1005.5 15.2 S 19.7 0.8 7.9
06:15 9.1 7.2 88 1005.8 15.9 SE 19.7 0.8 7.9
06:16 9.2 7.5 89 1005.7 14.5 SE 19.7 1.5 7.9
06:17 9.2 7.5 89 1005.6 15.2 S 19.7 0.8 7.9
06:18 9.2 7.5 89 1005.7 18.3 S 19.7 0.8 7.9
06:19 9.2 7.5 89 1005.5 14.5 SE 19.7 0.8 7.9
06:21 9.3 7.6 89 1005.5 13.0 S 19.7 0.0 7.9
06:22 9.4 7.7 89 1005.5 19.0 WSW 19.0 0.0 7.9
06:23 9.5 7.8 89 1005.4 18.3 S 19.0 0.0 7.9
06:24 9.4 7.7 89 1005.4 15.9 SE 19.0 0.0 7.9
06:25 9.4 7.7 89 1005.4 13.6 S 19.0 0.8 8.0
06:26 9.5 7.8 89 1005.5 16.8 S 19.0 0.8 8.0
06:27 9.5 7.8 89 1005.4 15.9 SE 19.0 0.8 8.0
06:28 9.6 7.9 89 1005.3 15.2 S 19.0 0.8 8.0
06:29 9.6 7.9 89 1005.5 17.4 SE 19.0 0.8 8.0
06:30 9.6 7.9 89 1005.5 14.5 SE 19.0 0.0 8.0
06:31 9.6 8.0 90 1005.5 15.9 S 19.0 0.8 8.1
06:32 9.7 8.1 90 1005.4 15.9 S 19.0 1.5 8.1
06:33 9.7 8.1 90 1005.5 13.6 S 18.3 1.5 8.1
06:35 9.8 8.2 90 1005.3 15.9 S 17.4 2.3 8.2
06:36 9.8 8.2 90 1005.4 17.4 WSW 17.4 1.5 8.2
06:37 9.8 8.2 90 1005.3 20.6 SE 20.6 1.5 8.3
06:38 9.9 8.3 90 1005.5 16.8 S 20.6 1.5 8.3
06:39 9.9 8.3 90 1005.3 16.8 S 20.6 0.8 8.3
06:40 9.9 8.3 90 1005.2 18.3 S 20.6 1.5 8.3
06:41 9.9 8.3 90 1005.4 16.8 SE 20.6 2.3 8.4
06:42 10.0 8.4 90 1005.4 17.4 S 20.6 1.5 8.4
06:43 10.0 8.4 90 1005.2 25.1 S 25.1 1.5 8.4
06:44 10.1 8.5 90 1005.3 24.4 S 25.1 2.3 8.4
06:45 10.0 8.4 90 1005.3 17.4 S 25.1 2.3 8.5
06:46 10.1 8.7 91 1005.2 19.7 S 25.1 1.5 8.5
06:47 10.1 8.7 91 1005.2 21.3 S 25.1 1.5 8.5
06:48 10.1 8.7 91 1005.2 22.1 WSW 25.1 2.3 8.6
06:49 10.1 8.7 91 1005.2 15.9 S 25.1 1.5 8.6
06:50 10.2 8.8 91 1005.1 19.0 NE 25.1 0.8 8.6
06:51 10.2 8.8 91 1005.3 18.3 S 25.1 0.8 8.6
06:52 10.2 8.8 91 1005.0 18.3 SE 25.1 1.5 8.6
06:53 10.2 8.8 91 1005.1 18.3 S 25.1 0.8 8.7
06:54 10.2 8.8 91 1005.0 16.8 S 22.1 1.5 8.7
06:55 10.2 8.8 91 1005.1 15.9 S 22.1 1.5 8.7
06:56 10.2 8.8 91 1005.1 20.6 S 22.1 1.5 8.7
06:57 10.2 8.8 91 1005.0 17.4 WSW 22.1 0.8 8.7
06:58 10.2 8.8 91 1005.3 17.4 WSW 22.1 0.8 8.7
06:59 10.2 8.8 91 1005.0 19.0 S 21.3 0.8 8.8
07:00 10.2 8.8 91 1005.1 18.3 S 21.3 0.8 8.8
07:01 10.2 8.8 91 1005.1 13.6 S 21.3 0.8 8.8
07:03 10.2 8.8 91 1005.1 13.6 S 21.3 0.8 8.8
07:04 10.2 8.8 91 1005.0 13.6 S 21.3 0.0 8.8
07:05 10.2 8.8 91 1005.0 13.6 S 21.3 0.0 8.8
07:06 10.2 8.8 91 1005.0 13.6 S 21.3 0.0 8.8
07:07 10.3 8.9 91 1004.9 19.7 S 21.3 0.0 8.9
07:08 10.3 8.9 91 1005.1 16.8 S 21.3 2.3 8.9
07:09 10.3 8.9 91 1005.0 16.8 S 19.7 2.3 8.9
07:10 10.3 9.1 92 1004.9 15.2 S 19.7 3.0 9.0
07:11 10.3 9.1 92 1005.0 15.9 S 19.7 3.0 9.0
07:12 10.3 9.1 92 1004.9 17.4 S 19.7 3.8 9.1
07:13 10.3 9.1 92 1004.7 17.4 S 19.7 1.5 9.1
07:14 10.3 9.1 92 1004.9 13.0 WSW 19.7 1.5 9.1
07:15 10.3 9.1 92 1004.9 22.1 S 22.1 0.8 9.1
07:17 10.3 9.1 92 1004.9 12.1 S 22.1 0.8 9.1
07:18 10.3 9.1 92 1004.9 13.0 NNE 22.1 0.8 9.1
07:19 10.3 9.1 92 1004.9 18.3 S 22.1 0.8 9.1
07:20 10.3 9.1 92 1004.9 22.1 S 22.1 1.5 9.2
07:21 10.3 9.1 92 1004.9 20.6 WSW 22.1 0.8 9.2
07:22 10.3 9.1 92 1004.7 19.0 S 22.1 0.8 9.3
07:23 10.3 9.1 92 1004.7 18.3 SE 22.1 1.5 9.3
07:24 10.3 9.1 92 1004.8 18.3 SE 22.1 1.5 9.3
07:25 10.3 9.1 92 1004.7 22.1 S 22.1 1.5 9.3
07:26 10.3 9.1 92 1004.8 16.8 WSW 22.1 1.5 9.3
07:27 10.3 9.1 92 1004.8 19.0 SE 22.1 2.3 9.4
07:28 10.4 9.2 92 1004.8 18.3 SSW 22.1 1.5 9.4
07:29 10.3 9.1 92 1004.8 19.7 WSW 22.1 2.3 9.4
07:30 10.3 9.1 92 1004.8 18.3 S 22.1 1.5 9.4
07:31 10.3 9.1 92 1004.8 21.3 S 22.1 1.5 9.5
07:32 10.4 9.2 92 1004.7 17.4 S 22.1 1.5 9.5
07:33 10.3 9.1 92 1004.5 24.4 S 24.4 1.5 9.5
07:34 10.3 9.1 92 1004.7 17.4 WSW 24.4 0.8 9.5
07:35 10.4 9.2 92 1004.8 14.5 WSW 24.4 0.8 9.5
07:36 10.3 9.1 92 1004.6 25.1 S 25.1 0.8 9.5
07:37 10.3 9.1 92 1004.5 21.3 S 25.1 0.0 9.5
07:38 10.4 9.2 92 1004.7 19.0 S 25.1 0.0 9.5
07:39 10.4 9.3 93 1004.6 20.6 S 25.1 0.0 9.5
07:40 10.4 9.3 93 1004.5 22.1 S 25.1 0.0 9.5
07:41 10.4 9.3 93 1004.5 20.6 WSW 25.1 0.0 9.5
07:42 10.4 9.3 93 1004.6 16.8 SE 25.1 0.8 9.6
07:43 10.4 9.3 93 1004.6 14.5 SE 25.1 0.8 9.6
07:44 10.4 9.3 93 1004.5 21.3 SE 25.1 0.8 9.6
07:45 10.4 9.3 93 1004.6 14.5 S 25.1 0.8 9.6
07:46 10.4 9.3 93 1004.6 20.6 S 22.1 0.8 9.6
07:47 10.4 9.3 93 1004.5 13.6 S 22.1 0.0 9.6
07:48 10.4 9.3 93 1004.5 22.1 S 22.1 0.0 9.6
07:49 10.4 9.3 93 1004.5 19.7 WSW 22.1 0.8 9.6
07:50 10.4 9.3 93 1004.6 19.7 S 22.1 0.8 9.6
07:51 10.4 9.3 93 1004.6 19.7 S 22.1 0.8 9.6
07:52 10.4 9.3 93 1004.4 14.5 SE 22.1 0.8 9.6
07:53 10.4 9.3 93 1004.4 17.4 S 22.1 0.8 9.6
07:54 10.4 9.3 93 1004.5 12.1 S 22.1 0.0 9.6
07:55 10.4 9.3 93 1004.4 19.0 S 22.1 0.0 9.6
07:56 10.4 9.3 93 1004.4 20.6 S 22.1 0.0 9.6
07:57 10.4 9.3 93 1004.5 20.6 S 22.1 0.0 9.6
07:58 10.4 9.3 93 1004.4 19.0 S 20.6 0.0 9.7
07:59 10.4 9.3 93 1004.5 18.3 S 20.6 0.8 9.7
08:00 10.4 9.3 93 1004.4 17.4 WSW 20.6 0.8 9.7
08:01 10.4 9.3 93 1004.5 16.8 S 20.6 0.8 9.7
08:02 10.4 9.3 93 1004.5 16.8 S 20.6 0.8 9.7
08:03 10.4 9.3 93 1004.6 20.6 S 20.6 0.8 9.7
08:04 10.4 9.3 93 1004.6 20.6 SE 20.6 0.0 9.7
08:05 10.5 9.6 94 1004.6 20.6 S 20.6 0.0 9.7
08:06 10.5 9.6 94 1004.4 18.3 WSW 20.6 0.0 9.7
08:07 10.4 9.5 94 1004.4 22.8 S 22.8 0.0 9.7
08:08 10.4 9.5 94 1004.2 22.8 S 22.8 0.0 9.7
08:09 10.5 9.6 94 1004.3 19.0 SSW 22.8 0.8 9.8
08:10 10.5 9.6 94 1004.4 15.9 S 22.8 0.8 9.8
08:11 10.5 9.6 94 1004.4 15.9 S 22.8 0.8 9.8
08:13 10.5 9.6 94 1004.4 19.7 S 22.8 0.8 9.8
08:14 10.5 9.6 94 1004.3 20.6 SE 22.8 0.0 9.8
08:15 10.5 9.6 94 1004.5 21.3 WSW 22.8 0.0 9.8
08:16 10.5 9.6 94 1004.4 21.3 WSW 22.8 0.0 9.8
08:17 10.5 9.6 94 1004.3 17.4 S 24.4 0.0 9.8
08:18 10.5 9.6 94 1004.4 17.4 S 24.4 0.0 9.8
08:19 10.5 9.6 94 1004.4 22.8 WSW 24.4 0.0 9.8
08:20 10.5 9.6 94 1004.3 22.1 S 24.4 0.0 9.8
08:21 10.5 9.6 94 1004.4 15.2 S 24.4 0.0 9.8
08:22 10.5 9.6 94 1004.4 19.0 S 24.4 0.0 9.8
08:23 10.5 9.6 94 1004.4 21.3 SE 24.4 0.8 9.8
08:24 10.5 9.6 94 1004.4 18.3 SE 24.4 0.8 9.8
08:25 10.5 9.6 94 1004.4 18.3 S 24.4 0.8 9.8
08:27 10.5 9.7 95 1004.4 17.4 SE 22.8 0.8 9.8
08:28 10.5 9.7 95 1004.2 17.4 SE 22.8 0.0 9.8
08:29 10.5 9.7 95 1004.4 18.3 S 22.8 0.0 9.8
08:30 10.5 9.7 95 1004.1 25.1 S 25.1 0.0 9.8
08:31 10.5 9.7 95 1004.4 27.3 WSW 27.3 0.0 9.8
08:32 10.6 9.8 95 1004.3 22.8 S 27.3 0.0 9.8
08:33 10.5 9.7 95 1004.1 19.0 S 27.3 0.0 9.8
08:34 10.5 9.7 95 1004.4 22.1 NNE 27.3 0.8 9.9
08:35 10.5 9.7 95 1004.4 16.8 S 27.3 0.8 9.9
08:36 10.6 9.8 95 1004.2 20.6 S 27.3 0.8 9.9
08:37 10.6 9.8 95 1004.3 20.6 S 27.3 0.8 9.9
08:38 10.6 9.8 95 1004.2 17.4 S 27.3 1.5 10.0
08:39 10.6 9.8 95 1004.2 20.6 S 27.3 0.8 10.0
08:41 10.6 9.8 95 1004.5 18.3 S 27.3 1.5 10.0
08:42 10.6 9.8 95 1004.5 22.8 WSW 22.8 1.5 10.1
08:43 10.6 9.8 95 1004.3 22.8 WSW 22.8 1.5 10.1
08:44 10.6 9.8 95 1004.4 18.3 SE 22.8 1.5 10.1
08:45 10.6 10.0 96 1004.2 23.5 WSW 23.5 1.5 10.1
08:46 10.6 9.8 95 1004.0 24.4 S 24.4 1.5 10.1
08:47 10.6 10.0 96 1004.1 18.3 S 24.4 1.5 10.2
08:48 10.6 10.0 96 1004.0 17.4 S 24.4 1.5 10.2
08:49 10.6 10.0 96 1004.1 12.1 S 24.4 1.5 10.2
08:50 10.6 10.0 96 1004.1 17.4 SE 24.4 0.8 10.2
08:51 10.5 9.9 96 1004.3 17.4 S 24.4 0.8 10.2
08:52 10.5 9.9 96 1004.1 20.6 S 24.4 0.8 10.2
08:53 10.5 9.9 96 1004.1 22.8 S 24.4 0.0 10.2
08:54 10.6 10.0 96 1004.3 25.1 S 25.1 0.8 10.3
08:55 10.5 9.9 96 1004.3 22.1 SE 25.1 0.8 10.3
08:56 10.6 10.0 96 1004.1 18.3 WSW 25.1 0.8 10.3
08:57 10.5 9.9 96 1004.1 21.3 S 25.1 0.8 10.3
08:58 10.6 10.0 96 1004.1 20.6 SSE 25.1 0.8 10.3
08:59 10.6 10.0 96 1004.0 21.3 WSW 25.1 0.0 10.3
09:00 10.6 10.0 96 1004.1 17.4 S 25.1 0.0 10.3
09:01 10.6 10.0 96 1004.1 17.4 SE 25.1 0.0 10.3
09:02 10.6 10.0 96 1004.1 17.4 SE 25.1 0.0 10.3
09:03 10.6 10.0 96 1004.1 17.4 SE 25.1 0.0 10.3
09:04 10.6 10.0 96 1004.2 17.4 SE 25.1 0.0 10.3
09:05 10.6 10.0 96 1003.9 17.4 SE 22.1 0.0 10.3
09:06 10.6 10.0 96 1004.2 17.4 SE 21.3 0.0 10.3
09:07 10.6 10.0 96 1004.2 19.0 S 21.3 0.0 10.3
09:09 10.6 10.1 97 1004.0 22.1 WSW 22.1 1.5 10.4
09:10 10.6 10.0 96 1003.9 13.6 S 22.1 1.5 10.4
09:11 10.6 10.1 97 1004.0 25.1 S 25.1 1.5 10.4
09:12 10.6 10.0 96 1003.9 18.3 S 25.1 1.5 10.4
09:13 10.6 10.1 97 1003.9 25.1 S 25.1 1.5 10.5
09:14 10.6 10.1 97 1004.0 17.4 S 25.1 0.8 10.5
09:15 10.6 10.1 97 1003.9 18.3 WSW 25.1 1.5 10.5
09:16 10.6 10.1 97 1003.9 22.1 S 25.1 1.5 10.5
09:17 10.6 10.1 97 1003.7 25.1 S 25.1 3.0 10.6
09:18 10.6 10.1 97 1003.8 15.9 S 25.1 3.0 10.7
09:19 10.6 10.1 97 1003.7 22.1 S 25.1 3.0 10.8
09:20 10.6 10.1 97 1003.7 19.7 SE 25.1 3.0 10.8
09:21 10.6 10.1 97 1003.7 16.8 S 25.1 3.8 10.8
09:23 10.6 10.1 97 1003.7 15.2 SSW 25.1 2.3 10.9
09:24 10.6 10.1 97 1003.7 15.2 SSW 25.1 2.3 10.9
09:25 10.6 10.1 97 1003.7 18.3 SE 25.1 2.3 11.0
09:26 10.6 10.1 97 1003.7 18.3 S 25.1 1.5 11.0
09:27 10.6 10.1 97 1003.7 20.6 S 22.8 1.5 11.0
09:28 10.6 10.1 97 1003.5 19.0 SE 22.8 2.3 11.1
09:29 10.6 10.1 97 1003.6 18.3 S 22.1 3.0 11.2
09:30 10.6 10.1 97 1003.5 19.0 WSW 20.6 2.3 11.2
09:31 10.6 10.1 97 1003.6 16.8 S 20.6 3.0 11.2
09:32 10.6 10.1 97 1003.5 15.2 WSW 20.6 2.3 11.2
09:33 10.6 10.1 97 1003.7 19.0 S 20.6 2.3 11.3
09:34 10.6 10.1 97 1003.5 20.6 SE 20.6 1.5 11.3
09:35 10.6 10.1 97 1003.6 18.3 S 22.1 1.5 11.3
09:36 10.6 10.3 98 1003.6 19.0 S 22.1 0.8 11.3
09:37 10.6 10.3 98 1003.6 20.6 S 22.1 1.5 11.3
09:38 10.6 10.3 98 1003.8 25.1 S 25.1 0.8 11.3
09:39 10.6 10.3 98 1003.8 25.1 S 25.1 0.8 11.3
09:40 10.6 10.3 98 1003.6 23.5 S 25.1 0.8 11.3
09:41 10.6 10.3 98 1003.6 16.8 S 25.1 0.8 11.3
09:42 10.6 10.3 98 1003.6 19.7 SE 25.1 0.0 11.3
09:43 10.6 10.3 98 1003.6 19.7 SE 25.1 0.0 11.3
09:44 10.6 10.3 98 1003.5 27.3 SE 27.3 0.0 11.3
09:45 10.6 10.3 98 1003.4 22.1 S 27.3 0.0 11.3
09:46 10.6 10.3 98 1003.6 17.4 S 27.3 0.0 11.3
09:47 10.6 10.3 98 1003.5 21.3 WSW 27.3 0.0 11.3
09:48 10.6 10.3 98 1003.4 21.3 S 27.3 0.0 11.3
09:49 10.6 10.3 98 1003.4 15.9 S 27.3 0.0 11.3
09:51 10.6 10.3 98 1003.6 22.8 WSW 27.3 0.0 11.3
09:52 10.7 10.4 98 1003.6 26.6 S 27.3 0.0 11.3
09:53 10.7 10.4 98 1003.5 25.9 WSW 27.3 0.0 11.3
09:54 10.7 10.4 98 1003.5 25.9 SSW 26.6 0.0 11.3
09:55 10.7 10.4 98 1003.5 22.1 S 26.6 0.0 11.3
09:56 10.7 10.4 98 1003.5 19.7 SSW 26.6 0.0 11.3
09:57 10.7 10.4 98 1003.4 19.0 WSW 26.6 0.0 11.3
09:58 10.7 10.6 99 1003.4 24.4 WSW 26.6 0.0 11.3
09:59 10.7 10.6 99 1003.7 22.1 SE 26.6 0.0 11.3
10:00 10.7 10.6 99 1003.4 19.7 SE 26.6 0.0 11.3
10:01 10.7 10.6 99 1003.4 20.6 S 26.6 0.0 11.3
10:02 10.7 10.6 99 1003.4 20.6 S 26.6 0.0 11.3
10:03 10.8 10.7 99 1003.4 25.9 WSW 25.9 0.0 11.4
10:04 10.8 10.7 99 1003.5 22.8 S 25.9 0.8 11.4
10:05 10.8 10.7 99 1003.4 23.5 S 25.9 0.8 11.4
10:06 10.8 10.7 99 1003.2 21.3 S 25.9 0.8 11.4
10:07 10.8 10.7 99 1003.1 23.5 S 25.9 0.8 11.4
10:08 10.8 10.7 99 1003.3 25.1 SE 25.9 0.8 11.4
10:09 10.8 10.7 99 1003.3 22.1 S 25.9 0.0 11.4
10:10 10.8 10.7 99 1003.6 20.6 WSW 25.9 0.0 11.4
10:11 10.8 10.7 99 1003.6 20.6 WSW 25.9 0.0 11.4
10:12 10.8 10.7 99 1003.4 20.6 S 25.9 0.0 11.4
10:13 10.8 10.7 99 1003.3 23.5 SE 25.9 0.0 11.4
10:14 10.8 10.7 99 1003.4 25.1 S 25.1 0.0 11.4
10:15 10.8 10.7 99 1003.4 25.9 S 27.3 0.0 11.4
10:16 10.7 10.6 99 1003.4 20.6 SE 27.3 0.0 11.4
10:17 10.8 10.7 99 1003.4 23.5 S 27.3 0.0 11.4
10:19 10.8 10.7 99 1003.5 23.5 S 27.3 0.0 11.4
10:20 10.8 10.7 99 1003.4 17.4 S 27.3 0.0 11.4
10:21 10.8 10.7 99 1003.4 21.3 SE 27.3 0.0 11.4
10:22 10.7 10.6 99 1003.4 22.8 S 27.3 0.0 11.4
10:23 10.8 10.7 99 1003.4 16.8 WSW 27.3 0.0 11.4
10:24 10.8 10.7 99 1003.1 22.1 SE 27.3 0.0 11.4
10:25 10.8 10.7 99 1003.2 20.6 S 25.9 0.8 11.5
10:26 10.8 10.7 99 1003.1 22.8 S 23.5 0.8 11.5
10:27 10.8 10.7 99 1003.2 21.3 SE 23.5 0.8 11.5
10:28 10.8 10.7 99 1003.2 30.4 SSW 30.4 0.8 11.5
10:29 10.8 10.7 99 1003.2 24.4 S 30.4 0.8 11.5
10:30 10.8 10.7 99 1003.0 27.3 S 30.4 0.0 11.5
10:31 10.8 10.7 99 1003.1 24.4 S 30.4 0.0 11.5
10:33 10.8 10.7 99 1003.0 18.3 S 30.4 0.0 11.5
10:34 10.8 10.7 99 1003.1 26.6 WNW 30.4 0.0 11.5
10:35 10.8 10.7 99 1003.1 24.4 WSW 30.4 0.0 11.5
10:36 10.8 10.7 99 1003.1 23.5 SE 30.4 0.0 11.5
10:37 10.8 10.7 99 1003.0 20.6 S 30.4 0.0 11.5
10:38 10.8 10.7 99 1003.0 21.3 SSW 27.3 0.0 11.5
10:39 10.8 10.7 99 1003.1 21.3 S 27.3 0.0 11.5
10:40 10.8 10.7 99 1003.1 21.3 S 27.3 0.0 11.5
10:41 10.8 10.7 99 1003.0 18.3 S 27.3 0.0 11.5
10:42 10.8 10.7 99 1003.0 22.8 S 27.3 0.0 11.5
10:43 10.8 10.7 99 1003.0 27.3 S 27.3 0.0 11.5
10:44 10.8 10.7 99 1003.1 20.6 S 27.3 0.0 11.5
10:45 10.8 10.7 99 1003.0 23.5 S 27.3 0.0 11.5
10:47 10.8 10.7 99 1003.0 27.3 S 33.6 0.8 11.5
10:48 10.8 10.7 99 1003.0 23.5 SE 33.6 0.8 11.5
10:49 10.9 10.8 99 1002.9 24.4 S 33.6 0.8 11.5
10:50 10.9 10.8 99 1002.8 26.6 SE 33.6 0.8 11.5
10:51 10.9 10.8 99 1002.9 24.4 S 33.6 0.8 11.5
10:52 10.9 10.8 99 1002.8 30.4 S 33.6 0.0 11.5
10:53 10.9 10.8 99 1002.8 21.3 S 33.6 0.0 11.5
10:54 10.9 10.8 99 1002.8 21.3 S 33.6 0.0 11.5
10:55 10.9 10.8 99 1002.7 23.5 S 33.6 0.0 11.5
10:56 10.9 10.8 99 1002.9 22.8 S 33.6 0.0 11.5
10:57 10.9 10.8 99 1002.9 21.3 S 30.4 0.0 11.5
10:58 10.9 10.8 99 1002.9 28.2 S 30.4 0.0 11.5
10:59 10.9 10.8 99 1002.8 27.3 S 30.4 0.0 11.5
11:00 10.9 10.8 99 1002.8 27.3 S 30.4 0.0 11.5
11:02 10.9 10.8 99 1002.7 25.1 WSW 28.2 0.0 11.5
11:03 10.9 10.8 99 1002.8 25.1 WSW 28.2 0.0 11.5
11:04 10.9 10.8 99 1002.8 25.1 WSW 28.2 0.0 11.5
11:05 10.9 10.8 99 1002.6 21.3 SE 28.2 0.0 11.5
11:06 10.9 10.8 99 1002.7 25.1 S 28.2 0.0 11.5
11:07 10.9 10.8 99 1002.7 26.6 WSW 28.2 0.0 11.5
11:08 10.9 10.8 99 1002.7 22.8 SE 27.3 0.0 11.5
11:09 10.9 10.8 99 1002.6 21.3 SE 27.3 0.0 11.5
11:10 10.9 10.8 99 1002.8 28.9 N 28.9 0.0 11.5
11:11 10.9 10.8 99 1002.9 30.4 E 30.4 0.0 11.5
11:12 10.9 10.8 99 1002.7 25.1 S 30.4 0.0 11.5
11:13 10.9 10.8 99 1002.7 26.6 S 30.4 0.0 11.5
11:14 10.9 10.8 99 1002.7 29.8 S 30.4 0.0 11.5
11:15 10.9 10.8 99 1002.6 26.6 S 30.4 0.0 11.5
11:16 10.9 10.8 99 1002.9 28.2 S 30.4 0.0 11.5
11:17 10.9 10.8 99 1002.6 21.3 WSW 30.4 0.0 11.5
11:18 10.9 10.8 99 1002.6 25.9 S 30.4 0.0 11.5
11:19 10.9 10.8 99 1002.8 25.9 WSW 30.4 0.0 11.5
11:20 10.9 10.8 99 1002.5 22.1 SE 30.4 0.0 11.5
11:21 10.9 10.8 99 1002.7 22.8 WSW 29.8 0.0 11.5
11:22 10.9 10.8 99 1002.7 22.8 WSW 29.8 0.0 11.5
11:23 10.9 10.8 99 1002.6 27.3 WSW 29.8 0.0 11.5
11:24 10.9 10.8 99 1002.5 25.9 WSW 28.2 0.0 11.5
11:25 10.9 10.8 99 1002.6 25.1 S 28.2 0.0 11.5
11:26 11.0 10.9 99 1002.6 29.8 S 29.8 0.0 11.5
11:27 10.9 10.8 99 1002.5 26.6 S 29.8 0.0 11.5
11:28 10.9 10.8 99 1002.5 21.3 SE 29.8 0.0 11.5
11:29 10.9 10.8 99 1002.6 21.3 S 29.8 0.0 11.5
11:30 10.9 10.8 99 1002.5 27.3 S 29.8 0.0 11.5
11:31 10.9 10.8 99 1002.6 28.2 S 29.8 0.0 11.5
11:32 10.9 10.8 99 1002.4 28.9 S 29.8 0.0 11.5
11:33 10.9 10.8 99 1002.5 20.6 S 29.8 0.0 11.5
11:34 10.9 10.8 99 1002.5 25.1 S 29.8 0.0 11.5
11:35 10.9 10.8 99 1002.4 25.1 S 29.8 0.0 11.5
11:36 10.9 10.8 99 1002.4 23.5 S 28.9 0.0 11.5
11:37 10.9 10.8 99 1002.5 17.4 S 28.9 0.0 11.5
11:38 10.9 10.8 99 1002.4 20.6 S 28.9 0.0 11.5
11:39 10.9 10.8 99 1002.4 22.1 S 28.9 0.0 11.5
11:40 10.9 10.8 99 1002.4 25.1 S 28.9 0.0 11.5
11:41 10.9 10.8 99 1002.6 25.1 SE 28.9 0.0 11.5
11:42 10.9 10.8 99 1002.4 17.4 S 28.9 0.0 11.5
11:43 10.9 10.8 99 1002.6 24.4 SE 28.9 0.0 11.5
11:44 10.9 10.8 99 1002.5 19.7 S 25.1 0.0 11.5
11:45 10.9 10.8 99 1002.4 31.1 SE 31.1 0.0 11.5
11:46 10.9 10.8 99 1002.5 31.1 SE 31.1 0.0 11.5
11:47 10.9 10.8 99 1002.5 20.6 WSW 31.1 0.0 11.5
11:48 10.9 10.8 99 1002.4 20.6 WSW 31.1 0.0 11.5
11:49 10.9 10.8 99 1002.5 20.6 WSW 31.1 0.0 11.5
11:50 10.9 10.8 99 1002.5 20.6 WSW 31.1 0.0 11.5
11:51 10.9 10.8 99 1002.4 20.6 WSW 31.1 0.0 11.5
11:52 10.9 10.8 99 1002.5 20.6 WSW 31.1 0.0 11.5
11:53 10.9 10.8 99 1002.6 25.9 WSW 31.1 0.0 11.5
11:54 10.9 10.8 99 1002.4 25.9 WSW 31.1 0.0 11.5
11:55 10.9 10.8 99 1002.4 23.5 S 31.1 0.0 11.5
11:56 10.8 10.7 99 1002.3 23.5 S 31.1 0.0 11.5
11:57 10.8 10.7 99 1002.7 28.2 S 28.2 0.0 11.5
11:58 10.8 10.7 99 1002.3 27.3 NNE 28.2 0.0 11.5
11:59 10.8 10.7 99 1002.4 23.5 SE 28.2 0.0 11.5
12:00 10.8 10.7 99 1002.5 24.4 SE 28.2 0.0 11.5
12:01 10.8 10.7 99 1002.2 26.6 S 28.2 0.0 11.5
12:02 10.8 10.7 99 1002.4 26.6 S 28.2 0.0 11.5
12:03 10.8 10.7 99 1002.3 21.3 S 28.2 0.0 11.5
12:04 10.8 10.7 99 1002.4 25.9 S 28.2 0.0 11.5
12:05 10.8 10.7 99 1002.4 20.6 SE 28.2 0.0 11.5
12:06 10.8 10.7 99 1002.3 26.6 S 28.2 0.0 11.5
12:07 10.8 10.7 99 1002.3 22.1 S 28.2 0.0 11.5
12:08 10.8 10.7 99 1002.4 20.6 S 27.3 0.0 11.5
12:09 10.8 10.7 99 1002.5 25.9 S 26.6 0.0 11.5
12:10 10.8 10.7 99 1002.2 22.1 S 26.6 0.0 11.5
12:11 10.8 10.7 99 1002.2 22.1 S 26.6 0.0 11.5
12:12 10.8 10.7 99 1002.4 25.1 SSW 28.9 0.0 11.5
12:13 10.8 10.7 99 1002.4 26.6 WSW 28.9 0.0 11.5
12:14 10.8 10.7 99 1002.2 25.1 S 28.9 0.0 11.5
12:15 10.8 10.7 99 1002.3 25.1 S 28.9 0.0 11.5
12:16 10.8 10.7 99 1002.1 26.6 SSW 28.9 0.0 11.5
12:17 10.8 10.7 99 1002.1 24.4 WSW 34.9 0.0 11.5
12:18 10.7 10.6 99 1002.3 21.3 S 34.9 0.0 11.5
12:19 10.7 10.6 99 1002.0 32.0 S 34.9 0.0 11.5
12:20 10.7 10.6 99 1002.1 22.1 S 34.9 0.0 11.5
12:21 10.7 10.6 99 1002.1 27.3 SE 34.9 0.0 11.5
12:22 10.7 10.6 99 1001.9 20.6 NW 34.9 0.0 11.5
12:23 10.8 10.7 99 1001.8 19.7 WSW 34.9 0.0 11.5
12:24 10.7 10.6 99 1001.9 26.6 S 34.9 0.0 11.5
12:25 10.8 10.7 99 1001.8 21.3 S 34.9 0.0 11.5
12:26 10.8 10.7 99 1001.8 26.6 S 34.9 0.0 11.5
12:27 10.8 10.7 99 1001.9 26.6 S 32.0 0.0 11.5
12:28 10.8 10.7 99 1001.6 30.4 WSW 32.0 0.0 11.5
12:29 10.7 10.6 99 1001.7 20.6 S 32.0 0.0 11.5
12:30 10.7 10.6 99 1001.8 20.6 S 30.4 0.0 11.5
12:31 10.7 10.6 99 1001.6 22.8 S 30.4 0.0 11.5
12:32 10.7 10.6 99 1001.7 24.4 S 30.4 0.0 11.5
12:33 10.7 10.6 99 1001.8 17.4 WSW 30.4 0.0 11.5
12:34 10.7 10.6 99 1001.6 19.7 S 30.4 0.0 11.5
12:35 10.7 10.6 99 1001.6 25.9 SE 30.4 0.0 11.5
12:36 10.7 10.6 99 1001.7 19.7 S 30.4 0.0 11.5
12:37 10.7 10.6 99 1001.6 19.7 S 30.4 0.0 11.5
12:38 10.7 10.6 99 1001.6 25.9 SE 30.4 0.0 11.5
12:39 10.7 10.6 99 1001.5 22.1 S 29.8 0.0 11.5
12:41 10.7 10.6 99 1001.4 24.4 SE 28.2 0.0 11.5
12:42 10.7 10.6 99 1001.4 20.6 S 28.2 0.0 11.5
12:43 10.7 10.6 99 1001.5 26.6 S 28.2 0.0 11.5
12:44 10.7 10.6 99 1001.5 28.2 S 28.2 0.0 11.5
12:45 10.7 10.6 99 1001.4 25.1 S 28.2 0.0 11.5
12:46 10.7 10.6 99 1001.4 22.1 SE 28.2 0.0 11.5
12:47 10.7 10.6 99 1001.4 27.3 SE 28.2 0.0 11.5
12:48 10.7 10.6 99 1001.4 25.9 S 28.2 0.0 11.5
12:49 10.7 10.6 99 1001.4 22.8 S 28.2 0.0 11.5
12:50 10.7 10.6 99 1001.3 26.6 WSW 28.2 0.0 11.5
12:51 10.7 10.6 99 1001.6 21.3 S 28.2 0.0 11.5
12:52 10.7 10.6 99 1001.5 25.1 SE 28.2 0.0 11.5
12:53 10.7 10.6 99 1001.2 24.4 S 28.2 0.0 11.5
12:55 10.7 10.6 99 1001.2 27.3 S 27.3 0.0 11.5
12:56 10.7 10.6 99 1001.0 26.6 S 27.3 0.0 11.5
12:57 10.7 10.6 99 1001.2 22.8 SE 27.3 0.0 11.5
12:58 10.7 10.6 99 1001.2 25.1 S 27.3 0.0 11.5
12:59 10.7 10.6 99 1001.3 24.4 S 27.3 0.0 11.5
13:00 10.7 10.6 99 1000.9 21.3 SE 27.3 0.0 11.5
13:01 10.7 10.6 99 1000.9 21.3 SE 27.3 0.0 11.5
13:02 10.7 10.6 99 1001.0 21.3 SE 27.3 0.0 11.5
13:03 10.7 10.6 99 1001.0 24.4 S 27.3 0.0 11.5
13:04 10.7 10.6 99 1001.1 28.9 S 28.9 0.0 11.5
13:05 10.7 10.6 99 1001.0 22.1 S 28.9 0.0 11.5
13:06 10.7 10.6 99 1001.1 21.3 SE 28.9 0.0 11.5
13:07 10.7 10.6 99 1000.9 25.9 SE 28.9 0.0 11.5
13:09 10.7 10.6 99 1000.8 22.1 S 28.9 0.0 11.5
13:10 10.7 10.6 99 1000.9 28.2 WSW 28.9 0.0 11.5
13:11 10.7 10.6 99 1000.9 21.3 S 28.9 0.0 11.5
13:12 10.7 10.6 99 1001.1 24.4 S 28.9 0.0 11.5
13:13 10.7 10.6 99 1000.8 27.3 WSW 28.9 0.0 11.5
13:14 10.7 10.6 99 1000.9 22.8 S 28.2 0.0 11.5
13:15 10.7 10.6 99 1000.9 22.8 S 28.2 0.0 11.5
13:16 10.7 10.6 99 1000.7 26.6 S 29.8 0.0 11.5
13:17 10.7 10.6 99 1000.7 24.4 S 29.8 0.0 11.5
13:18 10.6 10.5 99 1000.7 26.6 S 29.8 0.0 11.5
13:19 10.7 10.6 99 1000.7 28.2 SSW 29.8 0.0 11.5
13:20 10.6 10.5 99 1000.6 22.8 S 29.8 0.0 11.5
13:21 10.6 10.5 99 1000.7 26.6 S 29.8 0.0 11.5
13:22 10.6 10.5 99 1000.6 21.3 S 29.8 0.0 11.5
13:23 10.6 10.5 99 1000.6 25.9 S 29.8 0.0 11.5
13:24 10.6 10.5 99 1000.5 25.9 SSW 29.8 0.0 11.5
13:25 10.6 10.5 99 1000.5 20.6 SE 29.8 0.0 11.5
13:26 10.6 10.5 99 1000.7 21.3 SE 28.9 0.0 11.5
13:27 10.6 10.5 99 1000.6 19.7 S 28.9 0.0 11.5
13:28 10.6 10.5 99 1000.6 25.1 S 28.9 0.0 11.5
13:29 10.6 10.5 99 1000.6 22.8 S 28.9 0.0 11.5
13:30 10.6 10.5 99 1000.7 23.5 S 28.9 0.0 11.5
13:31 10.6 10.5 99 1000.5 20.6 WSW 28.9 0.0 11.5
13:32 10.6 10.5 99 1000.5 22.1 S 28.9 0.0 11.5
13:33 10.6 10.5 99 1000.5 22.1 S 28.2 0.0 11.5
13:34 10.6 10.5 99 1000.6 21.3 S 28.2 0.0 11.5
13:35 10.6 10.5 99 1000.6 20.6 S 28.2 0.0 11.5
13:36 10.6 10.5 99 1000.5 21.3 SE 28.2 0.0 11.5
13:37 10.5 10.4 99 1000.5 22.8 S 28.2 0.0 11.5
13:38 10.5 10.4 99 1000.6 21.3 S 28.2 0.0 11.5
13:39 10.5 10.4 99 1000.5 21.3 S 28.2 0.0 11.5
13:40 10.5 10.4 99 1000.6 19.7 S 28.2 0.0 11.5
13:41 10.5 10.4 99 1000.4 16.8 WSW 28.2 0.0 11.5
13:42 10.5 10.4 99 1000.5 17.4 S 23.5 0.0 11.5
13:43 10.5 10.4 99 1000.5 17.4 S 23.5 0.0 11.5
13:44 10.5 10.4 99 1000.4 19.0 S 23.5 0.0 11.5
13:45 10.5 10.4 99 1000.3 23.5 WSW 23.5 0.0 11.5
13:46 10.5 10.4 99 1000.5 20.6 S 23.5 0.0 11.5
13:47 10.5 10.4 99 1000.4 27.3 WSW 27.3 0.0 11.5
13:48 10.5 10.4 99 1000.5 20.6 WSW 27.3 0.0 11.5
13:49 10.5 10.4 99 1000.2 21.3 SSW 27.3 0.0 11.5
13:50 10.5 10.4 99 1000.4 19.0 SE 27.3 0.0 11.5
13:51 10.5 10.4 99 1000.4 18.3 S 27.3 0.0 11.5
13:52 10.5 10.4 99 1000.2 24.4 S 27.3 0.0 11.5
13:53 10.5 10.4 99 1000.0 23.5 S 30.4 0.0 11.5
13:54 10.5 10.4 99 1000.1 20.6 S 30.4 0.0 11.5
13:55 10.5 10.4 99 1000.2 22.8 S 30.4 0.0 11.5
13:56 10.5 10.4 99 1000.4 24.4 S 30.4 0.0 11.5
13:57 10.5 10.4 99 1000.1 25.1 S 30.4 0.0 11.5
13:58 10.5 10.4 99 999.9 25.9 S 30.4 0.0 11.5
13:59 10.5 10.4 99 1000.2 28.9 NNE 30.4 0.0 11.5
14:00 10.5 10.4 99 999.9 17.4 WSW 30.4 0.0 11.5
14:01 10.5 10.4 99 999.9 26.6 S 30.4 0.0 11.5
14:02 10.5 10.4 99 999.9 26.6 S 30.4 0.0 11.5
14:03 10.5 10.4 99 1000.0 26.6 S 30.4 0.0 11.5
14:04 10.5 10.4 99 1000.0 26.6 S 28.9 0.0 11.5
14:05 10.5 10.4 99 999.9 26.6 S 28.9 0.0 11.5
14:06 10.5 10.4 99 999.9 26.6 S 28.9 0.0 11.5
14:07 10.5 10.4 99 999.9 25.1 WSW 28.9 0.0 11.5
14:08 10.5 10.4 99 999.8 22.8 S 28.9 0.0 11.5
14:09 10.5 10.4 99 999.9 22.1 S 26.6 0.0 11.5
14:10 10.5 10.4 99 999.8 17.4 SSW 26.6 0.0 11.5
14:11 10.5 10.4 99 999.8 17.4 SSW 26.6 0.0 11.5
14:12 10.5 10.4 99 999.7 24.4 S 26.6 0.0 11.5
14:13 10.5 10.4 99 999.8 21.3 S 26.6 0.0 11.5
14:14 10.5 10.4 99 999.8 19.0 WSW 26.6 0.0 11.5
14:15 10.6 10.5 99 999.9 25.9 S 26.6 0.0 11.5
14:16 10.5 10.4 99 999.7 21.3 WSW 26.6 0.0 11.5
14:17 10.5 10.4 99 999.9 28.2 S 28.2 0.0 11.5
14:18 10.5 10.4 99 999.9 26.6 SE 28.2 0.0 11.5
14:19 10.5 10.4 99 999.6 22.8 S 28.2 0.0 11.5
14:20 10.5 10.4 99 999.6 25.9 S 28.2 0.0 11.5
14:21 10.5 10.4 99 999.6 14.5 WSW 28.2 0.0 11.5
14:22 10.5 10.4 99 999.7 22.8 S 28.2 0.0 11.5
14:23 10.5 10.4 99 999.8 22.1 ESE 28.2 0.0 11.5
14:24 10.5 10.4 99 999.6 25.9 S 28.2 0.0 11.5
14:25 10.5 10.4 99 999.6 21.3 S 28.2 0.0 11.5
14:26 10.6 10.5 99 999.5 16.8 WSW 28.2 0.0 11.5
14:27 10.5 10.4 99 999.8 19.7 S 28.2 0.0 11.5
14:28 10.5 10.4 99 999.5 21.3 S 26.6 0.0 11.5
14:29 10.5 10.4 99 999.6 23.5 S 25.9 0.0 11.5
14:30 10.5 10.4 99 999.5 25.1 WSW 25.9 0.0 11.5
14:31 10.5 10.4 99 999.5 28.2 S 28.2 0.0 11.5
14:32 10.5 10.4 99 999.5 26.6 S 28.2 0.0 11.5
14:33 10.5 10.4 99 999.6 27.3 S 28.2 0.0 11.5
14:34 10.5 10.4 99 999.6 21.3 S 28.2 0.0 11.5
14:35 10.5 10.4 99 999.4 23.5 WSW 28.2 0.0 11.5
14:36 10.5 10.4 99 999.4 21.3 S 28.2 0.0 11.5
14:37 10.5 10.4 99 999.6 19.7 S 28.2 0.0 11.5
14:38 10.5 10.4 99 999.5 27.3 S 28.2 0.0 11.5
14:39 10.5 10.4 99 999.5 27.3 S 28.2 0.0 11.5
14:40 10.5 10.4 99 999.4 19.7 S 28.2 0.0 11.5
14:41 10.5 10.4 99 999.6 25.9 S 27.3 0.0 11.5
14:42 10.6 10.5 99 999.6 26.6 S 27.3 0.0 11.5
14:43 10.5 10.4 99 999.3 25.9 S 27.3 0.0 11.5
14:46 10.6 10.5 99 999.4 30.4 S 30.4 0.0 11.5
14:47 10.5 10.4 99 999.3 25.1 S 30.4 0.0 11.5
14:48 10.5 10.4 99 999.3 25.1 S 30.4 0.0 11.5
14:49 10.6 10.5 99 999.3 25.1 S 30.4 0.0 11.5
14:50 10.6 10.5 99 999.3 18.3 S 30.4 0.0 11.5
14:51 10.6 10.5 99 999.4 29.8 S 30.4 0.0 11.5
14:52 10.5 10.4 99 999.4 20.6 S 30.4 0.0 11.5
14:53 10.6 10.5 99 999.5 25.9 S 30.4 0.0 11.5
14:54 10.6 10.5 99 999.3 22.1 S 30.4 0.0 11.5
14:55 10.6 10.5 99 999.3 22.1 S 30.4 0.0 11.5
14:56 10.5 10.4 99 999.2 25.9 S 29.8 0.0 11.5
14:57 10.6 10.5 99 999.3 23.5 WSW 29.8 0.0 11.5
14:58 10.5 10.4 99 999.2 20.6 SE 29.8 0.0 11.5
14:59 10.6 10.5 99 999.2 20.6 S 29.8 0.0 11.5
15:00 10.6 10.5 99 999.0 22.1 SE 29.8 0.0 11.5
15:01 10.6 10.5 99 999.2 23.5 S 29.8 0.0 11.5
15:02 10.6 10.5 99 999.1 23.5 S 25.9 0.0 11.5
15:03 10.6 10.5 99 999.2 23.5 S 25.9 0.0 11.5
15:04 10.6 10.5 99 999.0 23.5 S 25.9 0.0 11.5
15:05 10.6 10.5 99 999.1 23.5 S 25.9 0.0 11.5
15:06 10.6 10.5 99 999.1 23.5 S 25.9 0.0 11.5
15:07 10.6 10.5 99 999.1 23.5 S 23.5 0.0 11.5
15:08 10.6 10.5 99 999.2 22.1 SE 23.5 0.0 11.5
15:09 10.6 10.5 99 999.0 25.9 SE 25.9 0.0 11.5
15:10 10.6 10.5 99 999.1 30.4 S 30.4 0.0 11.5
15:11 10.6 10.5 99 999.1 24.4 S 30.4 0.0 11.5
15:12 10.6 10.5 99 999.1 18.3 NW 30.4 0.0 11.5
15:13 10.6 10.5 99 998.9 19.7 S 30.4 0.0 11.5
15:14 10.6 10.5 99 998.9 27.3 S 30.4 0.0 11.5
15:15 10.6 10.5 99 999.0 24.4 S 30.4 0.0 11.5
15:16 10.6 10.5 99 999.0 28.9 S 30.4 0.0 11.5
15:17 10.6 10.5 99 999.0 23.5 SSW 30.4 0.0 11.5
15:18 10.6 10.5 99 999.0 19.7 WSW 30.4 0.0 11.5
15:19 10.6 10.5 99 998.9 19.7 WSW 30.4 0.0 11.5
15:20 10.6 10.5 99 998.8 26.6 S 28.9 0.0 11.5
15:21 10.6 10.5 99 999.0 26.6 WSW 28.9 0.0 11.5
15:22 10.5 10.4 99 998.9 23.5 S 28.9 0.0 11.5
15:23 10.5 10.4 99 998.9 23.5 S 28.9 0.0 11.5
15:24 10.6 10.5 99 998.6 28.9 S 28.9 0.0 11.5
15:25 10.6 10.5 99 998.8 28.9 S 28.9 0.0 11.5
15:26 10.6 10.5 99 998.9 25.9 WSW 28.9 0.0 11.5
15:27 10.5 10.4 99 998.7 22.8 SE 28.9 0.0 11.5
15:28 10.6 10.5 99 998.5 27.3 S 28.9 0.0 11.5
15:29 10.6 10.5 99 998.5 21.3 SE 28.9 0.0 11.5
15:30 10.6 10.5 99 998.7 21.3 SE 28.9 0.0 11.5
15:31 10.6 10.5 99 998.7 18.3 SE 28.9 0.0 11.5
15:32 10.6 10.5 99 998.6 21.3 S 28.9 0.0 11.5
15:33 10.6 10.5 99 998.7 24.4 S 28.9 0.0 11.5
15:34 10.6 10.5 99 998.7 25.1 S 28.9 0.0 11.5
15:35 10.6 10.5 99 998.6 25.1 S 28.2 0.0 11.5
15:36 10.6 10.5 99 998.6 25.1 S 28.2 0.0 11.5
15:37 10.6 10.5 99 998.6 19.0 S 28.2 0.0 11.5
15:38 10.6 10.5 99 998.6 22.1 S 28.2 0.0 11.5
15:39 10.6 10.5 99 998.5 23.5 S 28.2 0.0 11.5
15:40 10.6 10.5 99 998.6 19.0 WSW 28.2 0.0 11.5
15:41 10.6 10.5 99 998.4 17.4 WSW 28.2 0.0 11.5
15:42 10.6 10.5 99 998.7 19.7 WSW 28.2 0.0 11.5
15:43 10.6 10.5 99 998.7 18.3 S 28.2 0.0 11.5
15:44 10.6 10.5 99 998.7 31.1 S 31.1 0.0 11.5
15:45 10.6 10.5 99 998.6 19.0 WSW 31.1 0.0 11.5
15:46 10.6 10.5 99 998.5 24.4 WSW 31.1 0.0 11.6
15:47 10.6 10.5 99 998.5 22.8 S 31.1 0.8 11.6
15:48 10.6 10.5 99 998.5 21.3 S 31.1 0.8 11.6
15:49 10.6 10.5 99 998.4 26.6 S 31.1 0.8 11.6
15:50 10.6 10.5 99 998.6 26.6 SE 31.1 0.8 11.6
15:51 10.6 10.5 99 998.5 27.3 SE 31.1 0.8 11.6
15:52 10.6 10.5 99 998.5 27.3 SE 31.1 0.0 11.6
15:53 10.6 10.5 99 998.6 25.1 WSW 31.1 0.0 11.6
15:54 10.6 10.5 99 998.5 25.9 S 31.1 0.0 11.6
15:55 10.6 10.5 99 998.4 23.5 S 27.3 0.0 11.6
15:56 10.6 10.5 99 998.4 21.3 SE 27.3 0.0 11.6
15:57 10.6 10.5 99 998.3 21.3 SE 27.3 0.0 11.6
15:58 10.6 10.5 99 998.2 22.1 S 27.3 0.0 11.6
15:59 10.6 10.5 99 998.3 28.9 S 28.9 0.0 11.6
16:00 10.6 10.5 99 998.3 21.3 S 28.9 0.0 11.6
16:01 10.6 10.5 99 998.1 22.8 S 28.9 0.0 11.6
16:02 10.6 10.5 99 998.2 22.8 S 28.9 0.0 11.6
16:03 10.6 10.5 99 998.4 22.8 S 28.9 0.0 11.6
16:04 10.6 10.5 99 998.2 22.8 S 28.9 0.0 11.6
16:05 10.6 10.5 99 998.1 22.8 S 28.9 0.0 11.6
16:06 10.6 10.5 99 998.1 22.8 S 28.9 0.0 11.6
16:07 10.6 10.5 99 998.2 22.8 S 28.9 0.0 11.6
16:08 10.5 10.4 99 998.2 19.7 S 28.9 0.0 11.6
16:09 10.5 10.4 99 998.0 21.3 SE 25.1 0.0 11.6
16:10 10.6 10.5 99 998.2 25.9 SE 25.9 0.0 11.6
16:11 10.5 10.4 99 998.2 22.8 S 25.9 0.0 11.6
16:12 10.5 10.4 99 998.1 22.1 S 25.9 0.0 11.6
16:13 10.5 10.4 99 998.2 25.1 S 25.9 0.0 11.6
16:14 10.5 10.4 99 998.1 24.4 WSW 25.9 0.0 11.6
16:16 10.5 10.4 99 998.0 23.5 WSW 27.3 0.8 11.7
16:17 10.5 10.4 99 998.0 22.1 S 30.4 0.8 11.7
16:18 10.5 10.4 99 998.0 20.6 WSW 30.4 0.8 11.7
16:19 10.5 10.4 99 998.1 20.6 S 30.4 0.8 11.7
16:20 10.5 10.4 99 998.0 22.1 S 30.4 0.8 11.7
16:21 10.5 10.4 99 998.0 24.4 SSW 30.4 0.0 11.7
16:22 10.5 10.4 99 998.0 24.4 SSW 30.4 0.0 11.7
16:23 10.5 10.4 99 997.9 17.4 SE 30.4 0.0 11.7
16:24 10.5 10.4 99 997.8 23.5 S 30.4 0.0 11.7
16:25 10.5 10.4 99 997.9 20.6 WSW 30.4 0.0 11.7
16:26 10.5 10.4 99 998.0 25.9 S 30.4 0.0 11.7
16:27 10.5 10.4 99 997.9 25.9 S 30.4 0.0 11.7
16:28 10.5 10.4 99 997.8 19.7 S 30.4 0.0 11.7
16:29 10.5 10.4 99 997.9 30.4 S 30.4 0.0 11.7
16:30 10.5 10.4 99 997.7 26.6 S 30.4 0.0 11.7
16:31 10.5 10.4 99 997.9 22.8 SE 30.4 0.0 11.7
16:32 10.5 10.4 99 998.0 21.3 SE 30.4 0.0 11.7
16:33 10.5 10.4 99 997.7 22.8 S 30.4 0.0 11.7
16:34 10.5 10.4 99 997.8 24.4 SE 30.4 0.0 11.7
16:35 10.5 10.4 99 997.7 30.4 S 30.4 0.0 11.7
16:36 10.5 10.4 99 997.8 25.1 SE 30.4 0.0 11.7
16:37 10.5 10.4 99 997.7 19.0 S 30.4 0.0 11.7
16:38 10.5 10.4 99 997.7 24.4 WSW 30.4 0.0 11.7
16:39 10.5 10.4 99 997.5 32.0 SE 32.0 0.0 11.7
16:40 10.5 10.4 99 997.8 22.8 S 32.0 0.0 11.7
16:41 10.5 10.4 99 997.6 22.8 WSW 32.0 0.0 11.7
16:42 10.5 10.4 99 997.8 25.1 E 32.0 0.0 11.7
16:43 10.5 10.4 99 997.7 28.9 S 32.0 0.8 11.7
16:44 10.5 10.4 99 997.7 23.5 S 32.0 0.8 11.7
16:45 10.5 10.4 99 997.6 20.6 S 32.0 0.8 11.7
16:46 10.5 10.4 99 997.7 25.9 SE 32.0 0.8 11.7
16:47 10.5 10.4 99 997.8 26.6 S 32.0 0.8 11.7
16:48 10.5 10.4 99 997.8 22.1 WSW 32.0 0.0 11.7
16:49 10.5 10.4 99 997.6 22.1 S 31.1 0.0 11.7
16:50 10.5 10.4 99 997.6 22.1 S 31.1 0.0 11.7
16:51 10.5 10.4 99 997.7 19.0 S 31.1 0.0 11.7
16:53 10.5 10.4 99 997.6 25.1 S 31.1 0.0 11.7
16:54 10.5 10.4 99 997.3 25.1 WSW 31.1 0.8 11.8
16:55 10.5 10.4 99 997.4 20.6 NNE 31.1 0.8 11.8
16:57 10.5 10.4 99 997.4 28.9 SE 28.9 0.8 11.8
16:58 10.5 10.4 99 997.4 23.5 WSW 28.9 0.8 11.8
16:59 10.5 10.4 99 997.3 30.4 SSW 30.4 0.0 11.8
17:00 10.5 10.4 99 997.4 28.9 S 30.4 0.0 11.8
17:01 10.5 10.4 99 997.5 22.1 SE 30.4 0.0 11.8
17:02 10.5 10.4 99 997.3 22.1 SE 30.4 0.0 11.8
17:03 10.5 10.4 99 997.3 22.1 SE 30.4 0.0 11.8
17:04 10.5 10.4 99 997.3 22.1 SE 30.4 0.0 11.8
17:05 10.5 10.4 99 997.2 26.6 S 30.4 0.0 11.8
17:06 10.4 10.3 99 997.4 23.5 S 30.4 0.0 11.8
17:07 10.5 10.4 99 997.1 28.2 WSW 30.4 0.0 11.8
17:08 10.4 10.3 99 997.4 24.4 WSW 30.4 0.0 11.8
17:09 10.5 10.4 99 997.2 28.2 S 30.4 0.0 11.8
17:10 10.4 10.3 99 997.1 22.8 S 28.9 0.8 11.8
17:11 10.4 10.3 99 997.1 32.0 S 32.0 0.8 11.8
17:12 10.4 10.3 99 997.1 31.1 WSW 32.0 0.8 11.8
17:13 10.4 10.3 99 997.3 25.9 S 32.0 0.8 11.8
17:14 10.4 10.3 99 997.0 27.3 S 32.0 0.8 11.8
17:15 10.4 10.3 99 997.2 25.9 SE 32.0 0.0 11.8
17:16 10.4 10.3 99 997.1 25.1 S 32.0 0.0 11.8
17:17 10.4 10.3 99 997.1 25.1 SE 32.0 0.0 11.9
17:18 10.4 10.3 99 997.0 24.4 SE 32.0 0.8 11.9
17:19 10.4 10.3 99 997.0 24.4 SE 32.0 0.8 11.9
17:20 10.4 10.3 99 997.0 26.6 SSE 32.0 0.8 11.9
17:21 10.4 10.3 99 997.1 23.5 S 32.0 0.8 11.9
17:22 10.4 10.3 99 997.0 26.6 SE 31.1 0.8 11.9
17:23 10.4 10.3 99 996.9 27.3 S 27.3 0.0 11.9
17:24 10.4 10.3 99 997.0 22.1 SE 27.3 0.0 11.9
17:25 10.4 10.3 99 997.0 20.6 E 27.3 0.0 11.9
17:26 10.4 10.3 99 997.0 26.6 S 27.3 0.0 11.9
17:27 10.4 10.3 99 997.0 25.9 S 27.3 0.0 11.9
17:28 10.4 10.3 99 996.9 27.3 S 27.3 0.0 11.9
17:29 10.4 10.3 99 996.9 24.4 S 28.2 0.0 11.9
17:30 10.4 10.3 99 997.0 27.3 S 28.2 0.0 11.9
17:31 10.4 10.3 99 997.0 25.1 S 28.2 0.0 11.9
17:32 10.4 10.3 99 996.9 23.5 SE 28.2 0.0 11.9
17:33 10.4 10.3 99 996.9 28.9 WSW 28.9 0.8 12.0
17:34 10.4 10.3 99 996.9 19.0 S 28.9 0.8 12.0
17:35 10.3 10.2 99 997.0 27.3 S 28.9 0.8 12.0
17:36 10.4 10.3 99 996.9 22.1 S 28.9 0.8 12.0
17:37 10.4 10.3 99 996.9 28.2 S 28.9 0.8 12.0
17:38 10.4 10.3 99 996.9 22.1 WSW 28.9 0.0 12.0
17:39 10.4 10.3 99 996.8 26.6 S 28.9 0.0 12.0
17:40 10.3 10.2 99 996.8 27.3 S 28.9 0.0 12.0
17:41 10.4 10.3 99 996.7 16.8 SE 28.9 0.0 12.0
17:42 10.3 10.2 99 996.9 22.8 S 28.9 0.0 12.0
17:43 10.4 10.3 99 996.8 27.3 S 28.9 0.0 12.0
17:44 10.3 10.2 99 996.7 25.9 S 28.9 0.0 12.0
17:45 10.3 10.2 99 996.8 24.4 S 28.9 0.0 12.0
17:46 10.3 10.2 99 996.8 25.1 SE 28.2 0.0 12.0
17:47 10.3 10.2 99 996.8 25.1 SE 28.2 0.0 12.0
17:48 10.3 10.2 99 996.8 17.4 S 28.9 0.0 12.0
17:49 10.3 10.2 99 996.7 21.3 S 28.9 0.0 12.0
17:50 10.3 10.2 99 996.5 23.5 S 28.9 0.0 12.0
17:51 10.3 10.2 99 996.8 26.6 SE 28.9 0.0 12.0
17:52 10.3 10.2 99 996.8 26.6 S 28.9 0.0 12.0
17:53 10.3 10.2 99 996.6 26.6 S 28.9 0.0 12.0
17:54 10.3 10.2 99 996.6 34.9 S 34.9 0.0 12.0
17:55 10.3 10.2 99 996.6 23.5 S 34.9 0.0 12.0
17:56 10.3 10.2 99 996.6 26.6 WSW 34.9 0.0 12.0
17:57 10.3 10.2 99 996.7 25.1 SSE 34.9 0.0 12.0
17:58 10.3 10.2 99 996.4 22.8 S 34.9 0.0 12.0
17:59 10.3 10.2 99 996.8 24.4 S 34.9 0.0 12.0
18:00 10.3 10.2 99 996.8 28.9 S 34.9 0.0 12.0
18:01 10.3 10.2 99 996.7 27.3 S 34.9 0.0 12.0
18:02 10.3 10.2 99 996.6 27.3 S 34.9 0.0 12.0
18:03 10.3 10.2 99 996.6 27.3 S 34.9 0.0 12.0
18:04 10.3 10.2 99 996.6 25.9 S 34.9 0.0 12.0
18:05 10.3 10.2 99 996.5 23.5 S 28.9 0.0 12.0
18:06 10.3 10.2 99 996.4 25.9 SE 28.9 0.0 12.0
18:07 10.3 10.2 99 996.6 23.5 S 28.9 0.0 12.0
18:09 10.3 10.2 99 996.5 19.7 S 28.9 0.0 12.0
18:10 10.3 10.2 99 996.3 23.5 S 28.2 0.0 12.0
18:11 10.3 10.2 99 996.4 19.7 S 28.2 0.0 12.0
18:12 10.3 10.2 99 996.5 14.5 SE 28.2 0.0 12.0
18:13 10.3 10.2 99 996.5 18.3 SE 28.2 0.0 12.0
18:14 10.3 10.2 99 996.3 27.3 S 28.2 0.0 12.0
18:15 10.3 10.2 99 996.3 27.3 S 28.2 0.0 12.0
18:16 10.3 10.2 99 996.4 23.5 S 28.2 0.0 12.0
18:17 10.3 10.2 99 996.3 25.1 SE 28.2 0.0 12.0
18:18 10.3 10.2 99 996.3 28.2 SE 28.2 0.0 12.0
18:19 10.3 10.2 99 996.4 26.6 SE 28.2 0.0 12.0
18:20 10.3 10.2 99 996.3 25.9 SE 28.2 0.0 12.0
18:21 10.3 10.2 99 996.4 28.2 SE 28.2 0.0 12.0
18:23 10.3 10.2 99 996.2 18.3 WSW 28.2 0.0 12.0
18:24 10.3 10.2 99 996.0 28.9 WSW 28.9 0.0 12.0
18:25 10.2 10.1 99 996.3 30.4 S 30.4 0.0 12.0
18:26 10.3 10.2 99 996.3 22.8 SE 30.4 0.8 12.0
18:27 10.3 10.2 99 996.3 21.3 S 30.4 0.8 12.0
18:28 10.3 10.2 99 996.4 29.8 S 30.4 0.8 12.0
18:29 10.3 10.2 99 996.0 22.1 S 30.4 0.8 12.0
18:30 10.2 10.1 99 996.2 30.4 SE 30.4 0.8 12.0
18:31 10.2 10.1 99 996.0 25.9 S 30.4 0.0 12.0
18:32 10.3 10.2 99 996.2 20.6 WSW 30.4 0.0 12.0
18:33 10.2 10.1 99 996.2 23.5 SE 30.4 0.0 12.0
18:34 10.3 10.2 99 996.1 26.6 S 30.4 0.0 12.0
18:35 10.3 10.2 99 996.1 23.5 S 30.4 0.0 12.0
18:37 10.3 10.2 99 996.2 25.1 SE 30.4 0.0 12.0
18:38 10.3 10.2 99 996.0 21.3 SE 30.4 0.0 12.0
18:39 10.3 10.2 99 996.0 28.2 S 30.4 0.0 12.0
18:40 10.3 10.2 99 996.1 28.2 S 28.2 0.0 12.0
18:41 10.2 10.1 99 996.0 19.0 S 28.2 0.0 12.0
18:42 10.2 10.1 99 995.9 25.1 S 28.2 0.0 12.0
18:43 10.2 10.1 99 995.9 25.1 S 28.2 0.0 12.0
18:44 10.2 10.1 99 996.1 22.1 WSW 28.2 0.0 12.0
18:45 10.3 10.2 99 995.9 20.6 S 28.2 0.0 12.0
18:46 10.3 10.2 99 995.9 20.6 S 28.2 0.0 12.0
18:47 10.3 10.2 99 995.9 23.5 WSW 28.2 0.0 12.0
18:48 10.2 10.1 99 995.9 21.3 SE 28.2 0.0 12.0
18:49 10.3 10.2 99 996.0 24.4 SE 28.2 0.0 12.0
18:50 10.2 10.1 99 996.0 21.3 S 28.2 0.0 12.0
18:51 10.3 10.2 99 995.8 23.5 SE 28.2 0.0 12.0
18:52 10.2 10.1 99 995.9 19.7 S 28.2 0.0 12.0
18:53 10.3 10.2 99 995.8 22.1 S 28.2 0.0 12.0
18:54 10.2 10.1 99 995.8 21.3 S 28.2 0.0 12.0
18:55 10.2 10.1 99 995.9 23.5 S 28.2 0.0 12.0
18:56 10.2 10.1 99 995.8 24.4 WSW 28.2 0.0 12.0
18:57 10.3 10.2 99 995.9 17.4 SE 28.2 0.0 12.0
18:58 10.3 10.2 99 995.8 21.3 S 28.2 0.0 12.0
18:59 10.3 10.2 99 995.7 26.6 S 28.2 0.0 12.0
19:00 10.2 10.1 99 995.7 25.9 S 28.2 0.0 12.0
19:01 10.3 10.2 99 995.8 23.5 SE 28.2 0.8 12.1
19:02 10.3 10.2 99 995.6 23.5 SE 28.2 0.8 12.1
19:03 10.3 10.2 99 995.5 23.5 SE 28.2 0.8 12.1
19:04 10.3 10.2 99 995.5 28.2 S 28.2 0.8 12.1
19:05 10.3 10.2 99 995.4 25.1 S 28.2 0.8 12.1
19:06 10.3 10.2 99 995.5 22.8 S 28.2 0.0 12.1
19:07 10.3 10.2 99 995.4 18.3 S 28.2 0.0 12.1
19:08 10.3 10.2 99 995.6 27.3 SE 28.2 0.0 12.1
19:09 10.3 10.2 99 995.4 23.5 S 28.2 0.0 12.1
19:10 10.3 10.2 99 995.3 24.4 S 28.2 0.0 12.2
19:11 10.3 10.2 99 995.3 24.4 S 28.2 0.8 12.2
19:12 10.3 10.2 99 995.5 20.6 S 28.2 0.8 12.2
19:13 10.3 10.2 99 995.2 25.1 S 28.2 0.8 12.2
19:14 10.3 10.2 99 995.4 23.5 S 28.2 1.5 12.2
19:15 10.3 10.2 99 995.3 22.1 S 27.3 1.5 12.2
19:16 10.3 10.2 99 995.2 21.3 S 27.3 1.5 12.3
19:17 10.3 10.2 99 995.1 21.3 S 27.3 1.5 12.3
19:18 10.3 10.2 99 995.2 22.8 WSW 27.3 1.5 12.3
19:19 10.3 10.2 99 995.2 24.4 WSW 25.1 1.5 12.3
19:20 10.3 10.2 99 995.3 22.1 SE 25.1 2.3 12.4
19:21 10.3 10.2 99 995.1 20.6 SE 25.1 1.5 12.4
19:22 10.3 10.2 99 995.1 19.7 N 25.1 1.5 12.5
19:23 10.3 10.2 99 995.0 24.4 SE 25.1 2.3 12.5
19:24 10.3 10.2 99 995.3 26.6 S 26.6 2.3 12.5
19:25 10.3 10.2 99 995.1 31.1 SE 31.1 2.3 12.6
19:26 10.3 10.2 99 995.1 31.1 SE 31.1 2.3 12.6
19:27 10.3 10.2 99 994.9 23.5 S 31.1 2.3 12.6
19:28 10.3 10.2 99 994.9 21.3 S 31.1 2.3 12.7
19:29 10.3 10.2 99 994.9 20.6 SE 31.1 2.3 12.7
19:30 10.3 10.2 99 994.9 20.6 S 31.1 1.5 12.7
19:31 10.3 10.2 99 994.9 24.4 SE 31.1 1.5 12.7
19:32 10.3 10.2 99 994.9 19.7 S 31.1 2.3 12.8
19:33 10.3 10.2 99 995.2 27.3 S 31.1 1.5 12.8
19:34 10.3 10.2 99 994.8 27.3 S 31.1 0.8 12.8
19:35 10.3 10.2 99 994.8 26.6 S 31.1 0.8 12.8
19:36 10.3 10.2 99 994.8 21.3 S 27.3 1.5 12.9
19:37 10.4 10.3 99 994.8 25.9 S 27.3 0.8 12.9
19:38 10.3 10.2 99 994.7 26.6 SE 27.3 0.8 12.9
19:39 10.4 10.3 99 994.8 25.1 S 27.3 1.5 12.9
19:40 10.4 10.3 99 994.8 27.3 SE 27.3 1.5 12.9
19:41 10.4 10.3 99 994.5 24.4 SSW 27.3 0.8 12.9
19:42 10.4 10.3 99 994.7 28.2 SE 28.2 1.5 13.0
19:43 10.4 10.3 99 994.5 19.0 S 28.2 1.5 13.0
19:44 10.4 10.3 99 994.5 25.9 S 28.2 0.8 13.0
19:45 10.4 10.3 99 994.5 21.3 S 28.2 1.5 13.0
19:46 10.4 10.3 99 994.4 25.1 S 28.2 1.5 13.0
19:47 10.4 10.3 99 994.5 23.5 S 28.2 0.8 13.0
19:48 10.4 10.3 99 994.5 29.8 SE 29.8 0.8 13.0
19:49 10.4 10.3 99 994.5 27.3 WSW 29.8 1.5 13.1
19:50 10.4 10.3 99 994.4 25.1 S 29.8 0.8 13.1
19:51 10.4 10.3 99 994.4 22.8 SE 29.8 0.8 13.2
19:52 10.4 10.3 99 994.3 23.5 S 29.8 1.5 13.2
19:53 10.4 10.3 99 994.4 26.6 S 29.8 1.5 13.2
19:54 10.4 10.3 99 994.3 22.8 SE 29.8 1.5 13.3
19:55 10.4 10.3 99 994.3 22.8 SE 29.8 2.3 13.3
19:56 10.4 10.3 99 994.2 25.9 S 29.8 2.3 13.3
19:57 10.4 10.3 99 994.1 24.4 S 29.8 2.3 13.4
19:58 10.4 10.3 99 994.0 18.3 S 29.8 3.0 13.4
19:59 10.4 10.3 99 994.2 30.4 SE 30.4 2.3 13.4
20:00 10.4 10.3 99 994.0 24.4 S 30.4 3.0 13.5
20:01 10.4 10.3 99 994.0 29.8 WSW 30.4 3.8 13.6
20:02 10.4 10.3 99 993.9 29.8 WSW 30.4 3.0 13.6
20:03 10.4 10.3 99 994.2 24.4 S 30.4 2.3 13.7
20:04 10.4 10.3 99 994.0 29.8 SE 30.4 3.8 13.7
20:05 10.4 10.3 99 993.9 22.8 SE 30.4 3.0 13.8
20:06 10.4 10.3 99 993.8 29.8 S 30.4 2.3 13.9
20:07 10.4 10.3 99 993.8 25.1 E 30.4 3.0 13.9
20:08 10.4 10.3 99 993.9 25.1 S 30.4 3.8 13.9
20:09 10.4 10.3 99 993.8 18.3 S 29.8 3.0 14.0
20:10 10.4 10.3 99 993.8 18.3 SE 29.8 2.3 14.0
20:11 10.4 10.3 99 993.6 21.3 SE 29.8 3.0 14.0
20:12 10.4 10.3 99 993.7 25.1 S 29.8 3.0 14.1
20:13 10.4 10.3 99 993.7 22.1 S 29.8 2.3 14.1
20:14 10.4 10.3 99 993.5 24.4 SE 29.8 1.5 14.1
20:15 10.4 10.3 99 993.7 18.3 ESE 29.8 2.3 14.2
20:16 10.4 10.3 99 993.5 28.2 S 29.8 1.5 14.2
20:17 10.4 10.3 99 993.6 28.9 SE 28.9 0.8 14.2
20:18 10.4 10.3 99 993.4 28.2 S 28.9 1.5 14.3
20:19 10.4 10.3 99 993.5 27.3 S 28.9 2.3 14.3
20:20 10.4 10.3 99 993.4 25.9 SE 28.9 1.5 14.3
20:21 10.4 10.3 99 993.6 24.4 S 28.9 1.5 14.3
20:22 10.4 10.3 99 993.6 25.1 S 28.9 1.5 14.4
20:23 10.4 10.3 99 993.6 25.1 S 28.9 1.5 14.4
20:24 10.4 10.3 99 993.4 19.7 SE 28.9 0.8 14.4
20:25 10.4 10.3 99 993.3 23.5 S 28.9 0.8 14.4
20:26 10.4 10.3 99 993.5 28.2 S 28.9 0.8 14.4
20:27 10.4 10.3 99 993.4 27.3 SE 28.9 0.8 14.4
20:28 10.4 10.3 99 993.3 23.5 SE 28.9 0.0 14.4
20:29 10.4 10.3 99 993.3 22.1 S 28.2 0.0 14.4
20:30 10.4 10.3 99 993.3 25.9 S 28.2 0.0 14.4
20:31 10.4 10.3 99 993.2 28.2 E 28.2 0.0 14.4
20:32 10.4 10.3 99 993.3 22.8 SE 28.2 0.0 14.4
20:33 10.4 10.3 99 993.1 24.4 SE 28.2 0.0 14.4
20:34 10.4 10.3 99 993.2 24.4 S 28.2 0.0 14.4
20:35 10.4 10.3 99 993.0 25.1 S 28.2 0.0 14.4
20:36 10.4 10.3 99 993.1 24.4 SE 28.2 0.0 14.4
20:37 10.4 10.3 99 993.2 24.4 SE 28.2 0.0 14.4
20:38 10.4 10.3 99 993.2 24.4 SE 28.2 0.0 14.4
20:39 10.4 10.3 99 993.1 22.8 S 28.2 0.0 14.4
20:40 10.4 10.3 99 992.9 24.4 S 28.2 0.8 14.4
20:41 10.4 10.3 99 993.0 22.1 S 28.2 0.8 14.4
20:42 10.4 10.3 99 992.8 22.1 S 25.9 0.8 14.4
20:43 10.4 10.3 99 992.9 19.0 SSE 25.9 0.8 14.4
20:44 10.4 10.3 99 993.1 26.6 SE 26.6 0.8 14.4
20:45 10.4 10.3 99 992.6 26.6 S 26.6 0.0 14.4
20:46 10.4 10.3 99 992.8 25.1 S 26.6 0.0 14.4
20:47 10.4 10.3 99 992.7 25.9 SE 26.6 0.0 14.4
20:48 10.4 10.3 99 992.8 27.3 SE 27.3 0.0 14.4
20:49 10.4 10.3 99 992.6 31.1 SE 31.1 0.0 14.4
20:50 10.4 10.3 99 992.8 28.9 S 31.1 0.0 14.4
20:51 10.4 10.3 99 992.6 28.9 S 31.1 0.0 14.4
20:52 10.4 10.3 99 992.5 23.5 S 31.1 0.0 14.4
20:53 10.4 10.3 99 992.7 31.1 S 31.1 0.0 14.4
20:54 10.4 10.3 99 992.5 33.6 S 33.6 0.0 14.4
20:55 10.4 10.3 99 992.6 27.3 SE 33.6 0.0 14.4
20:56 10.4 10.3 99 992.5 26.6 S 33.6 0.0 14.4
20:57 10.4 10.3 99 992.3 28.9 S 33.6 0.0 14.4
20:58 10.4 10.3 99 992.2 28.2 SE 33.6 0.0 14.4
20:59 10.4 10.3 99 992.3 30.4 SE 33.6 0.8 14.5
21:00 10.4 10.3 99 992.4 31.1 S 33.6 0.8 14.5
21:01 10.4 10.3 99 992.3 26.6 S 33.6 0.8 14.5
21:02 10.4 10.3 99 992.2 26.6 S 33.6 0.8 14.5
21:03 10.4 10.3 99 992.2 27.3 SE 33.6 0.8 14.5
21:04 10.4 10.3 99 992.2 26.6 SE 31.1 0.0 14.5
21:05 10.4 10.3 99 992.3 30.4 S 31.1 0.0 14.5
21:06 10.4 10.3 99 992.3 30.4 S 31.1 0.0 14.5
21:07 10.4 10.3 99 992.1 25.1 S 31.1 0.0 14.5
21:08 10.4 10.3 99 992.0 29.8 SE 31.1 0.0 14.5
21:09 10.4 10.3 99 992.1 31.1 S 31.1 0.0 14.5
21:10 10.4 10.3 99 992.0 27.3 SE 31.1 0.0 14.5
21:11 10.4 10.3 99 992.0 29.8 SE 31.1 0.0 14.5
21:12 10.4 10.3 99 992.3 31.1 SE 31.1 0.0 14.5
21:13 10.4 10.3 99 992.0 32.7 SE 32.7 0.0 14.6
21:15 10.4 10.3 99 992.0 24.4 SE 32.7 0.8 14.6
21:16 10.4 10.3 99 992.1 26.6 S 32.7 0.8 14.6
21:17 10.4 10.3 99 991.9 25.1 S 34.2 1.5 14.6
21:18 10.4 10.3 99 991.9 29.8 SE 34.2 1.5 14.6
21:19 10.4 10.3 99 991.9 25.1 SE 34.2 0.8 14.6
21:20 10.4 10.3 99 992.0 25.1 S 34.2 0.8 14.6
21:21 10.4 10.3 99 991.8 22.8 SE 34.2 0.8 14.6
21:22 10.4 10.3 99 991.9 32.0 S 34.2 0.0 14.6
21:23 10.4 10.3 99 992.0 29.8 S 34.2 0.0 14.6
21:24 10.4 10.3 99 991.8 25.9 S 34.2 0.8 14.7
21:25 10.4 10.3 99 991.8 32.0 SE 34.2 0.8 14.7
21:26 10.4 10.3 99 991.8 26.6 SE 34.2 0.8 14.7
21:27 10.4 10.3 99 991.8 30.4 S 34.2 0.8 14.7
21:28 10.4 10.3 99 991.7 31.1 SE 33.6 1.5 14.7
21:29 10.4 10.3 99 991.6 29.8 SE 33.6 0.8 14.7
21:30 10.4 10.3 99 991.5 26.6 S 33.6 0.8 14.7
21:31 10.4 10.3 99 991.5 25.9 S 33.6 0.8 14.7
21:32 10.4 10.3 99 991.5 32.0 S 33.6 0.8 14.7
21:33 10.4 10.3 99 991.6 24.4 SE 33.6 0.0 14.7
21:34 10.4 10.3 99 991.6 28.2 S 33.6 0.0 14.7
21:35 10.4 10.3 99 991.6 28.2 S 33.6 0.0 14.7
21:36 10.4 10.3 99 991.5 29.8 SE 33.6 0.8 14.8
21:37 10.4 10.3 99 991.4 38.0 S 38.0 0.8 14.8
21:38 10.4 10.3 99 991.4 30.4 S 38.0 0.8 14.8
21:39 10.4 10.3 99 991.5 31.1 S 38.0 0.8 14.8
21:40 10.4 10.3 99 991.6 33.6 SE 38.0 1.5 14.9
21:41 10.4 10.3 99 991.2 26.6 S 38.0 1.5 14.9
21:42 10.5 10.4 99 991.3 23.5 S 38.0 1.5 14.9
21:43 10.4 10.3 99 991.2 33.6 S 38.0 1.5 14.9
21:44 10.4 10.3 99 991.4 32.7 S 38.0 1.5 14.9
21:45 10.4 10.3 99 991.5 28.2 S 38.0 1.5 15.0
21:46 10.4 10.3 99 991.1 28.2 S 38.0 0.8 15.0
21:47 10.4 10.3 99 991.2 29.8 SE 33.6 0.8 15.0
21:48 10.4 10.3 99 991.3 32.0 S 33.6 0.8 15.0
21:49 10.4 10.3 99 991.0 26.6 S 33.6 1.5 15.1
21:50 10.4 10.3 99 991.0 26.6 S 33.6 0.8 15.1
21:51 10.5 10.4 99 991.3 35.8 SE 35.8 0.8 15.1
21:52 10.4 10.3 99 991.0 29.8 S 35.8 1.5 15.1
21:53 10.4 10.3 99 991.0 28.9 SE 35.8 1.5 15.1
21:54 10.4 10.3 99 991.1 28.9 S 35.8 0.8 15.1
21:55 10.4 10.3 99 991.0 32.7 SE 35.8 1.5 15.2
21:56 10.4 10.3 99 991.0 25.9 S 35.8 1.5 15.2
21:57 10.4 10.3 99 990.8 26.6 S 35.8 0.8 15.2
21:58 10.4 10.3 99 990.9 33.6 S 35.8 0.8 15.2
21:59 10.4 10.3 99 990.9 31.1 S 35.8 0.8 15.2
22:00 10.4 10.3 99 990.6 26.6 SE 35.8 0.0 15.2
22:01 10.4 10.3 99 991.2 33.6 S 33.6 0.0 15.2
22:02 10.4 10.3 99 990.4 33.6 S 33.6 0.0 15.2
22:03 10.4 10.3 99 990.7 28.2 S 33.6 0.0 15.2
22:04 10.4 10.3 99 990.5 26.6 S 33.6 2.3 15.4
22:05 10.4 10.3 99 990.5 29.8 S 33.6 3.0 15.4
22:06 10.4 10.3 99 990.6 34.2 SE 34.2 3.0 15.4
22:07 10.4 10.3 99 990.4 29.8 S 34.2 3.0 15.4
22:08 10.4 10.3 99 990.4 29.8 SE 34.2 3.8 15.5
22:09 10.4 10.3 99 990.5 27.3 SE 34.2 1.5 15.5
22:10 10.4 10.3 99 990.6 32.0 SE 34.2 1.5 15.6
22:11 10.4 10.3 99 990.5 32.0 S 34.2 1.5 15.6
22:12 10.4 10.3 99 990.5 26.6 S 34.2 1.5 15.6
22:13 10.4 10.3 99 990.3 38.0 S 38.0 1.5 15.7
22:14 10.4 10.3 99 990.2 28.9 S 38.0 2.3 15.7
22:15 10.4 10.3 99 990.2 30.4 S 38.0 2.3 15.8
22:16 10.4 10.3 99 990.3 31.1 S 38.0 3.0 15.8
22:17 10.4 10.3 99 990.2 33.6 S 38.0 3.0 15.9
22:18 10.4 10.3 99 990.2 33.6 S 38.0 3.0 15.9
22:19 10.4 10.3 99 990.2 32.0 S 38.0 3.0 15.9
22:20 10.4 10.3 99 990.1 28.9 SE 38.0 3.8 16.1
22:21 10.4 10.3 99 990.2 25.9 WSW 38.0 3.0 16.1
22:22 10.4 10.3 99 990.1 25.1 SE 38.0 3.0 16.1
22:23 10.4 10.3 99 990.1 23.5 SE 38.0 3.0 16.1
22:24 10.4 10.3 99 990.4 28.2 SE 38.0 3.8 16.3
22:25 10.4 10.3 99 990.0 28.9 S 33.6 3.8 16.4
22:26 10.3 10.2 99 990.3 22.1 SE 33.6 4.5 16.4
22:27 10.3 10.2 99 990.3 20.6 S 33.6 4.5 16.4
22:28 10.3 10.2 99 990.3 25.9 SE 32.7 3.8 16.4
22:29 10.3 10.2 99 990.3 31.1 SE 32.7 3.0 16.5
22:30 10.3 10.2 99 990.3 28.9 S 32.7 1.5 16.5
22:31 10.3 10.2 99 990.0 24.4 SE 32.7 0.8 16.6
22:32 10.3 10.2 99 990.3 25.1 SE 32.7 1.5 16.6
22:33 10.3 10.2 99 989.9 29.8 SE 32.7 1.5 16.6
22:34 10.3 10.2 99 989.9 23.5 SE 32.7 0.8 16.6
22:35 10.3 10.2 99 989.9 28.9 SE 32.7 0.8 16.6
22:36 10.3 10.2 99 989.9 30.4 S 32.0 0.8 16.6
22:37 10.3 10.2 99 989.9 25.9 S 32.0 0.0 16.6
22:38 10.3 10.2 99 989.8 28.2 S 32.0 0.8 16.6
22:40 10.3 10.2 99 989.8 28.2 S 32.0 2.3 16.8
22:41 10.3 10.2 99 989.9 25.9 S 33.6 3.0 16.8
22:42 10.3 10.2 99 989.9 29.8 NNE 33.6 3.0 16.9
22:43 10.3 10.2 99 989.8 29.8 NNE 33.6 3.0 16.9
22:44 10.3 10.2 99 989.6 22.8 SE 33.6 3.0 16.9
22:45 10.3 10.2 99 989.8 24.4 SE 33.6 2.3 16.9
22:46 10.3 10.2 99 989.8 24.4 SE 33.6 1.5 16.9
22:47 10.3 10.2 99 989.7 32.7 SE 33.6 1.5 16.9
22:48 10.3 10.2 99 989.6 31.1 S 33.6 0.8 16.9
22:49 10.3 10.2 99 989.5 36.5 S 36.5 0.8 17.0
22:50 10.3 10.2 99 989.4 29.8 S 36.5 0.8 17.0
22:51 10.3 10.2 99 989.5 24.4 S 36.5 1.5 17.1
22:52 10.3 10.2 99 989.4 31.1 SE 36.5 1.5 17.1
22:53 10.3 10.2 99 989.4 27.3 SE 36.5 1.5 17.1
22:54 10.3 10.2 99 989.2 24.4 SE 36.5 0.8 17.1
22:55 10.3 10.2 99 989.5 30.4 SE 36.5 0.8 17.1
22:56 10.3 10.2 99 989.4 28.9 S 36.5 1.5 17.2
22:57 10.3 10.2 99 989.2 23.5 ESE 36.5 1.5 17.2
22:58 10.3 10.2 99 989.2 28.2 WSW 36.5 1.5 17.3
22:59 10.3 10.2 99 989.1 29.8 SE 31.1 2.3 17.3
23:00 10.3 10.2 99 989.2 27.3 SE 31.1 3.0 17.3
23:01 10.2 10.1 99 989.3 24.4 SE 31.1 2.3 17.4
23:02 10.2 10.1 99 989.1 24.4 SE 31.1 2.3 17.4
23:03 10.2 10.1 99 989.3 24.4 SE 30.4 2.3 17.4
23:04 10.3 10.2 99 989.0 25.1 SE 30.4 4.5 17.6
23:05 10.3 10.2 99 989.0 25.1 S 30.4 4.5 17.7
23:06 10.2 10.1 99 988.9 25.1 SE 29.8 4.5 17.8
23:07 10.2 10.1 99 988.9 26.6 SE 29.8 5.3 17.8
23:08 10.2 10.1 99 988.9 27.3 SE 29.8 6.8 18.0
23:09 10.2 10.1 99 988.9 32.7 S 33.6 4.5 18.0
23:10 10.3 10.2 99 989.0 28.9 S 33.6 3.8 18.0
23:11 10.2 10.1 99 988.9 30.4 S 33.6 3.0 18.1
23:12 10.3 10.2 99 988.8 31.1 S 33.6 3.8 18.1
23:13 10.2 10.1 99 988.8 25.9 SE 33.6 3.0 18.2
23:14 10.2 10.1 99 988.7 28.2 S 33.6 2.3 18.3
23:15 10.2 10.1 99 988.7 32.7 S 33.6 3.0 18.3
23:16 10.2 10.1 99 988.7 25.1 SE 33.6 3.8 18.3
23:17 10.2 10.1 99 988.5 28.2 S 33.6 2.3 18.3
23:18 10.2 10.1 99 988.9 25.1 E 33.6 1.5 18.3
23:19 10.2 10.1 99 988.7 27.3 S 32.7 1.5 18.4
23:20 10.2 10.1 99 988.5 26.6 SE 32.7 1.5 18.4
23:21 10.2 10.1 99 988.6 19.7 S 32.7 0.8 18.4
23:22 10.3 10.2 99 988.5 26.6 SE 32.7 1.5 18.5
23:23 10.3 10.2 99 988.6 28.2 SE 32.7 1.5 18.5
23:24 10.2 10.1 99 988.4 25.1 SE 32.7 1.5 18.5
23:25 10.2 10.1 99 988.5 24.4 S 32.7 1.5 18.5
23:26 10.2 10.1 99 988.7 23.5 SE 30.4 2.3 18.6
23:27 10.2 10.1 99 988.6 34.2 S 34.2 2.3 18.6
23:28 10.3 10.2 99 988.5 35.8 S 35.8 3.8 18.8
23:29 10.2 10.1 99 988.3 27.3 SE 35.8 4.5 18.9
23:30 10.2 10.1 99 988.3 25.1 S 35.8 4.5 19.0
23:31 10.2 10.1 99 988.4 24.4 SE 35.8 4.5 19.0
23:32 10.3 10.2 99 988.3 32.7 SE 35.8 4.5 19.0
23:33 10.2 10.1 99 988.2 33.6 SE 35.8 3.8 19.1
23:34 10.3 10.2 99 988.2 34.9 S 35.8 3.0 19.2
23:35 10.2 10.1 99 988.2 29.8 E 35.8 3.8 19.3
23:36 10.3 10.2 99 988.1 27.3 S 35.8 3.8 19.3
23:37 10.2 10.1 99 988.1 19.7 SE 35.8 3.8 19.3
23:38 10.3 10.2 99 988.0 26.6 S 35.8 3.0 19.3
23:39 10.3 10.2 99 988.0 22.8 S 34.9 3.8 19.4
23:40 10.3 10.2 99 988.2 29.8 S 34.9 2.3 19.4
23:41 10.3 10.2 99 987.9 34.9 SE 34.9 2.3 19.5
23:42 10.2 10.1 99 987.9 20.6 S 34.9 1.5 19.5
23:43 10.3 10.2 99 987.9 23.5 S 34.9 2.3 19.5
23:44 10.3 10.2 99 987.9 34.2 S 34.9 3.0 19.7
23:45 10.3 10.2 99 988.0 28.9 S 34.9 3.0 19.7
23:46 10.2 10.1 99 988.0 28.9 SE 34.9 3.0 19.7
23:47 10.3 10.2 99 987.9 34.2 S 34.9 3.0 19.8
23:48 10.3 10.2 99 987.9 28.2 SE 34.9 3.8 19.8
23:49 10.3 10.2 99 987.7 28.9 WSW 34.9 2.3 19.8
23:50 10.3 10.2 99 987.7 28.9 WSW 34.9 2.3 19.8
23:51 10.3 10.2 99 987.7 29.8 S 34.9 2.3 19.9
23:52 10.3 10.2 99 987.4 20.6 S 34.2 3.0 20.0
23:53 10.3 10.2 99 987.5 29.8 S 34.2 1.5 20.0
23:54 10.3 10.2 99 987.7 28.2 SE 34.2 2.3 20.0
23:55 10.3 10.2 99 987.4 33.6 S 34.2 3.0 20.1
23:56 10.3 10.2 99 987.3 31.1 SE 34.2 2.3 20.1
23:57 10.3 10.2 99 987.2 26.6 S 34.2 2.3 20.2
23:58 10.2 10.1 99 987.2 27.3 S 33.6 2.3 20.3
23:59 10.3 10.2 99 987.1 22.8 SE 33.6 3.0 20.3

 

 

UK - WEATHER STATION TOPSITES - UK World Weather Websites

Copyright © Carnkie Weather 2009 - 2020.